Time,TemperatureF,DewpointF,PressureIn,WindDirection,WindDirectionDegrees,WindSpeedMPH,WindSpeedGustMPH,Humidity,HourlyPrecipIn,Conditions,Clouds,dailyrainin,SoftwareType,DateUTC
2013-02-26 00:00:00,37.8,27.8,30.10,ENE,72,3.0,6.0,67,0.00,,,0.00,Wunderground v.1.15,2013-02-26 05:00:00,
2013-02-26 00:01:00,37.9,27.9,30.10,East,82,2.0,2.0,67,0.00,,,0.00,Wunderground v.1.15,2013-02-26 05:01:00,
2013-02-26 00:07:00,37.9,27.9,30.10,NE,40,4.0,6.0,67,0.00,,,0.00,Wunderground v.1.15,2013-02-26 05:07:00,
2013-02-26 00:08:00,38.0,27.6,30.10,NNE,25,5.0,6.0,66,0.00,,,0.00,Wunderground v.1.15,2013-02-26 05:08:00,
2013-02-26 00:09:00,38.0,27.6,30.10,NE,42,3.0,6.0,66,0.00,,,0.00,Wunderground v.1.15,2013-02-26 05:09:00,
2013-02-26 00:11:00,38.0,27.3,30.10,ENE,75,4.0,4.0,65,0.00,,,0.00,Wunderground v.1.15,2013-02-26 05:11:00,
2013-02-26 00:17:00,38.0,27.6,30.10,ENE,70,4.0,4.0,66,0.00,,,0.00,Wunderground v.1.15,2013-02-26 05:17:00,
2013-02-26 00:18:00,38.0,27.3,30.10,ENE,78,1.0,4.0,65,0.00,,,0.00,Wunderground v.1.15,2013-02-26 05:18:00,
2013-02-26 00:22:00,38.0,27.3,30.10,ENE,62,3.0,3.0,65,0.00,,,0.00,Wunderground v.1.15,2013-02-26 05:22:00,
2013-02-26 00:24:00,38.0,27.3,30.10,NE,44,4.0,4.0,65,0.00,,,0.00,Wunderground v.1.15,2013-02-26 05:24:00,
2013-02-26 00:25:00,38.0,27.3,30.10,NE,51,3.0,4.0,65,0.00,,,0.00,Wunderground v.1.15,2013-02-26 05:25:00,
2013-02-26 00:28:00,38.0,27.3,30.10,NE,44,2.0,4.0,65,0.00,,,0.00,Wunderground v.1.15,2013-02-26 05:28:00,
2013-02-26 00:32:00,38.0,27.3,30.10,East,79,1.0,3.0,65,0.00,,,0.00,Wunderground v.1.15,2013-02-26 05:32:00,
2013-02-26 00:36:00,38.0,27.3,30.10,East,83,1.0,3.0,65,0.00,,,0.00,Wunderground v.1.15,2013-02-26 05:36:00,
2013-02-26 00:41:00,37.9,27.2,30.09,East,79,2.0,2.0,65,0.00,,,0.00,Wunderground v.1.15,2013-02-26 05:41:00,
2013-02-26 00:42:00,37.9,27.2,30.09,NE,53,5.0,5.0,65,0.00,,,0.00,Wunderground v.1.15,2013-02-26 05:42:00,
2013-02-26 00:45:00,37.9,27.2,30.09,East,86,1.0,5.0,65,0.00,,,0.00,Wunderground v.1.15,2013-02-26 05:45:00,
2013-02-26 00:46:00,37.9,27.2,30.09,ENE,73,2.0,5.0,65,0.00,,,0.00,Wunderground v.1.15,2013-02-26 05:46:00,
2013-02-26 00:48:00,37.9,27.2,30.09,East,80,2.0,5.0,65,0.00,,,0.00,Wunderground v.1.15,2013-02-26 05:48:00,
2013-02-26 00:49:00,37.9,27.2,30.09,NE,46,3.0,5.0,65,0.00,,,0.00,Wunderground v.1.15,2013-02-26 05:49:00,
2013-02-26 00:53:00,37.8,27.1,30.10,North,350,2.0,5.0,65,0.00,,,0.00,Wunderground v.1.15,2013-02-26 05:53:00,
2013-02-26 00:55:00,37.8,27.1,30.10,ENE,73,2.0,5.0,65,0.00,,,0.00,Wunderground v.1.15,2013-02-26 05:55:00,
2013-02-26 00:57:00,37.8,27.1,30.10,NNE,29,3.0,5.0,65,0.00,,,0.00,Wunderground v.1.15,2013-02-26 05:57:00,
2013-02-26 01:00:00,37.8,27.1,30.10,East,79,3.0,3.0,65,0.00,,,0.00,Wunderground v.1.15,2013-02-26 06:00:00,
2013-02-26 01:01:00,37.8,27.1,30.10,ENE,78,2.0,3.0,65,0.00,,,0.00,Wunderground v.1.15,2013-02-26 06:01:00,
2013-02-26 01:02:00,37.8,26.7,30.10,ENE,78,0.0,3.0,64,0.00,,,0.00,Wunderground v.1.15,2013-02-26 06:02:00,
2013-02-26 01:04:00,37.8,27.1,30.10,East,79,1.0,3.0,65,0.00,,,0.00,Wunderground v.1.15,2013-02-26 06:04:00,
2013-02-26 01:08:00,37.7,26.6,30.09,NE,56,1.0,3.0,64,0.00,,,0.00,Wunderground v.1.15,2013-02-26 06:08:00,
2013-02-26 01:10:00,37.8,26.7,30.10,East,89,1.0,2.0,64,0.00,,,0.00,Wunderground v.1.15,2013-02-26 06:10:00,
2013-02-26 01:11:00,37.7,26.6,30.09,East,86,2.0,2.0,64,0.00,,,0.00,Wunderground v.1.15,2013-02-26 06:11:00,
2013-02-26 01:12:00,37.7,26.6,30.10,East,84,4.0,4.0,64,0.00,,,0.00,Wunderground v.1.15,2013-02-26 06:12:00,
2013-02-26 01:15:00,37.7,26.6,30.10,NE,46,3.0,4.0,64,0.00,,,0.00,Wunderground v.1.15,2013-02-26 06:15:00,
2013-02-26 01:17:00,37.7,26.6,30.10,ENE,75,6.0,6.0,64,0.00,,,0.00,Wunderground v.1.15,2013-02-26 06:17:00,
2013-02-26 01:18:00,37.7,26.6,30.10,ENE,67,3.0,6.0,64,0.00,,,0.00,Wunderground v.1.15,2013-02-26 06:18:00,
2013-02-26 01:20:00,37.7,26.6,30.10,East,92,3.0,3.0,64,0.00,,,0.00,Wunderground v.1.15,2013-02-26 06:20:00,
2013-02-26 01:23:00,37.7,26.6,30.10,NE,54,3.0,3.0,64,0.00,,,0.00,Wunderground v.1.15,2013-02-26 06:23:00,
2013-02-26 01:25:00,37.7,26.6,30.10,ENE,61,3.0,3.0,64,0.00,,,0.00,Wunderground v.1.15,2013-02-26 06:25:00,
2013-02-26 01:26:00,37.7,26.6,30.10,NE,56,1.0,3.0,64,0.00,,,0.00,Wunderground v.1.15,2013-02-26 06:26:00,
2013-02-26 01:28:00,37.7,26.6,30.10,ENE,70,1.0,3.0,64,0.00,,,0.00,Wunderground v.1.15,2013-02-26 06:28:00,
2013-02-26 01:29:00,37.7,26.6,30.10,ENE,70,0.0,3.0,64,0.00,,,0.00,Wunderground v.1.15,2013-02-26 06:29:00,
2013-02-26 01:32:00,37.7,26.6,30.09,NNE,27,2.0,3.0,64,0.00,,,0.00,Wunderground v.1.15,2013-02-26 06:32:00,
2013-02-26 01:33:00,37.7,26.2,30.10,NNE,32,3.0,3.0,63,0.00,,,0.00,Wunderground v.1.15,2013-02-26 06:33:00,
2013-02-26 01:35:00,37.7,26.6,30.09,ENE,67,3.0,3.0,64,0.00,,,0.00,Wunderground v.1.15,2013-02-26 06:35:00,
2013-02-26 01:39:00,37.6,26.1,30.09,ENE,65,2.0,3.0,63,0.00,,,0.00,Wunderground v.1.15,2013-02-26 06:39:00,
2013-02-26 01:40:00,37.6,26.1,30.09,ENE,58,1.0,3.0,63,0.00,,,0.00,Wunderground v.1.15,2013-02-26 06:40:00,
2013-02-26 01:44:00,37.7,26.2,30.09,ENE,72,6.0,6.0,63,0.00,,,0.00,Wunderground v.1.15,2013-02-26 06:44:00,
2013-02-26 01:49:00,37.6,26.1,30.08,NNE,26,1.0,6.0,63,0.00,,,0.00,Wunderground v.1.15,2013-02-26 06:49:00,
2013-02-26 01:51:00,37.6,26.1,30.08,East,86,7.0,7.0,63,0.00,,,0.00,Wunderground v.1.15,2013-02-26 06:51:00,
2013-02-26 01:53:00,37.6,26.1,30.08,ESE,118,2.0,7.0,63,0.00,,,0.00,Wunderground v.1.15,2013-02-26 06:53:00,
2013-02-26 01:55:00,37.6,26.1,30.08,ENE,74,4.0,7.0,63,0.00,,,0.00,Wunderground v.1.15,2013-02-26 06:55:00,
2013-02-26 01:57:00,37.6,26.1,30.08,NE,49,5.0,7.0,63,0.00,,,0.00,Wunderground v.1.15,2013-02-26 06:57:00,
2013-02-26 01:58:00,37.6,26.1,30.08,NE,46,4.0,7.0,63,0.00,,,0.00,Wunderground v.1.15,2013-02-26 06:58:00,
2013-02-26 02:00:00,37.6,25.7,30.08,NE,37,2.0,4.0,62,0.00,,,0.00,Wunderground v.1.15,2013-02-26 07:00:00,
2013-02-26 02:01:00,37.6,26.1,30.08,ENE,67,3.0,4.0,63,0.00,,,0.00,Wunderground v.1.15,2013-02-26 07:01:00,
2013-02-26 02:02:00,37.6,25.7,30.08,ENE,78,4.0,4.0,62,0.00,,,0.00,Wunderground v.1.15,2013-02-26 07:02:00,
2013-02-26 02:03:00,37.6,25.7,30.08,ENE,59,3.0,4.0,62,0.00,,,0.00,Wunderground v.1.15,2013-02-26 07:03:00,
2013-02-26 02:05:00,37.6,26.1,30.07,East,82,4.0,7.0,63,0.00,,,0.00,Wunderground v.1.15,2013-02-26 07:05:00,
2013-02-26 02:06:00,37.6,25.7,30.07,East,80,2.0,7.0,62,0.00,,,0.00,Wunderground v.1.15,2013-02-26 07:06:00,
2013-02-26 02:07:00,37.6,25.7,30.07,ENE,78,2.0,7.0,62,0.00,,,0.00,Wunderground v.1.15,2013-02-26 07:07:00,
2013-02-26 02:09:00,37.6,26.1,30.07,ENE,58,2.0,7.0,63,0.00,,,0.00,Wunderground v.1.15,2013-02-26 07:09:00,
2013-02-26 02:10:00,37.6,26.1,30.07,NE,51,3.0,4.0,63,0.00,,,0.00,Wunderground v.1.15,2013-02-26 07:10:00,
2013-02-26 02:12:00,37.6,26.1,30.07,NE,36,3.0,5.0,63,0.00,,,0.00,Wunderground v.1.15,2013-02-26 07:12:00,
2013-02-26 02:14:00,37.6,25.7,30.06,North,354,1.0,6.0,62,0.00,,,0.00,Wunderground v.1.15,2013-02-26 07:14:00,
2013-02-26 02:15:00,37.6,26.1,30.06,ESE,106,2.0,6.0,63,0.00,,,0.00,Wunderground v.1.15,2013-02-26 07:15:00,
2013-02-26 02:17:00,37.6,25.7,30.06,NE,34,3.0,6.0,62,0.00,,,0.00,Wunderground v.1.15,2013-02-26 07:17:00,
2013-02-26 02:19:00,37.6,25.7,30.06,NE,51,2.0,6.0,62,0.00,,,0.00,Wunderground v.1.15,2013-02-26 07:19:00,
2013-02-26 02:20:00,37.6,25.7,30.06,ENE,77,2.0,3.0,62,0.00,,,0.00,Wunderground v.1.15,2013-02-26 07:20:00,
2013-02-26 02:22:00,37.6,25.7,30.06,NE,51,2.0,4.0,62,0.00,,,0.00,Wunderground v.1.15,2013-02-26 07:22:00,
2013-02-26 02:24:00,37.6,26.1,30.06,NNE,32,3.0,4.0,63,0.00,,,0.00,Wunderground v.1.15,2013-02-26 07:24:00,
2013-02-26 02:25:00,37.6,25.7,30.06,ENE,65,3.0,4.0,62,0.00,,,0.00,Wunderground v.1.15,2013-02-26 07:25:00,
2013-02-26 02:27:00,37.6,25.7,30.06,NE,44,2.0,5.0,62,0.00,,,0.00,Wunderground v.1.15,2013-02-26 07:27:00,
2013-02-26 02:29:00,37.6,25.7,30.06,ENE,72,3.0,5.0,62,0.00,,,0.00,Wunderground v.1.15,2013-02-26 07:29:00,
2013-02-26 02:30:00,37.6,25.7,30.06,NE,46,1.0,3.0,62,0.00,,,0.00,Wunderground v.1.15,2013-02-26 07:30:00,
2013-02-26 02:32:00,37.6,25.7,30.06,NE,36,2.0,4.0,62,0.00,,,0.00,Wunderground v.1.15,2013-02-26 07:32:00,
2013-02-26 02:35:00,37.6,25.7,30.06,East,94,1.0,5.0,62,0.00,,,0.00,Wunderground v.1.15,2013-02-26 07:35:00,
2013-02-26 02:36:00,37.6,25.7,30.06,North,6,3.0,5.0,62,0.00,,,0.00,Wunderground v.1.15,2013-02-26 07:36:00,
2013-02-26 02:37:00,37.6,25.4,30.06,NE,52,1.0,5.0,61,0.00,,,0.00,Wunderground v.1.15,2013-02-26 07:37:00,
2013-02-26 02:40:00,37.6,25.4,30.06,East,88,2.0,2.0,61,0.00,,,0.00,Wunderground v.1.15,2013-02-26 07:40:00,
2013-02-26 02:41:00,37.6,25.7,30.06,ENE,78,3.0,3.0,62,0.00,,,0.00,Wunderground v.1.15,2013-02-26 07:41:00,
2013-02-26 02:42:00,37.6,25.7,30.06,ENE,70,4.0,6.0,62,0.00,,,0.00,Wunderground v.1.15,2013-02-26 07:42:00,
2013-02-26 02:43:00,37.6,25.7,30.06,NE,52,2.0,6.0,62,0.00,,,0.00,Wunderground v.1.15,2013-02-26 07:43:00,
2013-02-26 02:45:00,37.7,25.5,30.06,NE,56,1.0,6.0,61,0.00,,,0.00,Wunderground v.1.15,2013-02-26 07:45:00,
2013-02-26 02:46:00,37.7,25.8,30.06,ENE,72,2.0,6.0,62,0.00,,,0.00,Wunderground v.1.15,2013-02-26 07:46:00,
2013-02-26 02:47:00,37.7,25.8,30.07,NE,36,4.0,6.0,62,0.00,,,0.00,Wunderground v.1.15,2013-02-26 07:47:00,
2013-02-26 02:48:00,37.7,25.8,30.06,ENE,75,2.0,6.0,62,0.00,,,0.00,Wunderground v.1.15,2013-02-26 07:48:00,
2013-02-26 02:50:00,37.7,25.5,30.06,NE,47,3.0,3.0,61,0.00,,,0.00,Wunderground v.1.15,2013-02-26 07:50:00,
2013-02-26 02:51:00,37.7,25.5,30.06,NE,40,4.0,4.0,61,0.00,,,0.00,Wunderground v.1.15,2013-02-26 07:51:00,
2013-02-26 02:53:00,37.7,25.5,30.06,East,80,3.0,5.0,61,0.00,,,0.00,Wunderground v.1.15,2013-02-26 07:53:00,
2013-02-26 02:56:00,37.7,25.8,30.06,ENE,57,2.0,5.0,62,0.00,,,0.00,Wunderground v.1.15,2013-02-26 07:56:00,
2013-02-26 02:58:00,37.7,25.8,30.06,ENE,70,1.0,5.0,62,0.00,,,0.00,Wunderground v.1.15,2013-02-26 07:58:00,
2013-02-26 03:01:00,37.7,25.8,30.06,NE,44,1.0,2.0,62,0.00,,,0.00,Wunderground v.1.15,2013-02-26 08:01:00,
2013-02-26 03:02:00,37.7,25.8,30.06,NE,43,2.0,3.0,62,0.00,,,0.00,Wunderground v.1.15,2013-02-26 08:02:00,
2013-02-26 03:03:00,37.7,25.8,30.06,ENE,78,2.0,3.0,62,0.00,,,0.00,Wunderground v.1.15,2013-02-26 08:03:00,
2013-02-26 03:06:00,37.7,25.8,30.05,ENE,58,5.0,5.0,62,0.00,,,0.00,Wunderground v.1.15,2013-02-26 08:06:00,
2013-02-26 03:07:00,37.7,25.5,30.05,NNE,29,4.0,5.0,61,0.00,,,0.00,Wunderground v.1.15,2013-02-26 08:07:00,
2013-02-26 03:08:00,37.7,25.5,30.05,NE,46,3.0,5.0,61,0.00,,,0.00,Wunderground v.1.15,2013-02-26 08:08:00,
2013-02-26 03:11:00,37.7,25.5,30.05,NE,46,3.0,4.0,61,0.00,,,0.00,Wunderground v.1.15,2013-02-26 08:11:00,
2013-02-26 03:12:00,37.7,25.5,30.05,North,9,1.0,4.0,61,0.00,,,0.00,Wunderground v.1.15,2013-02-26 08:12:00,
2013-02-26 03:13:00,37.7,25.5,30.04,East,80,3.0,4.0,61,0.00,,,0.00,Wunderground v.1.15,2013-02-26 08:13:00,
2013-02-26 03:16:00,37.7,25.8,30.04,East,82,3.0,5.0,62,0.00,,,0.00,Wunderground v.1.15,2013-02-26 08:16:00,
2013-02-26 03:17:00,37.7,25.8,30.04,ENE,76,3.0,5.0,62,0.00,,,0.00,Wunderground v.1.15,2013-02-26 08:17:00,
2013-02-26 03:18:00,37.7,25.8,30.04,ESE,102,1.0,5.0,62,0.00,,,0.00,Wunderground v.1.15,2013-02-26 08:18:00,
2013-02-26 03:19:00,37.7,26.2,30.04,NE,52,3.0,5.0,63,0.00,,,0.00,Wunderground v.1.15,2013-02-26 08:19:00,
2013-02-26 03:21:00,37.6,26.1,30.04,NE,37,2.0,4.0,63,0.00,,,0.00,Wunderground v.1.15,2013-02-26 08:21:00,
2013-02-26 03:23:00,37.6,26.5,30.03,East,86,2.0,4.0,64,0.00,,,0.00,Wunderground v.1.15,2013-02-26 08:23:00,
2013-02-26 03:24:00,37.6,26.5,30.03,ENE,78,3.0,4.0,64,0.00,,,0.00,Wunderground v.1.15,2013-02-26 08:24:00,
2013-02-26 03:26:00,37.5,26.4,30.03,ENE,62,1.0,4.0,64,0.00,,,0.00,Wunderground v.1.15,2013-02-26 08:26:00,
2013-02-26 03:28:00,37.4,26.7,30.03,NNE,27,1.0,4.0,65,0.00,,,0.00,Wunderground v.1.15,2013-02-26 08:28:00,
2013-02-26 03:29:00,37.4,27.1,30.03,ENE,59,2.0,4.0,66,0.00,,,0.00,Wunderground v.1.15,2013-02-26 08:29:00,
2013-02-26 03:31:00,37.3,27.0,30.03,North,11,2.0,2.0,66,0.00,,,0.00,Wunderground v.1.15,2013-02-26 08:31:00,
2013-02-26 03:33:00,37.3,27.3,30.03,NE,56,4.0,4.0,67,0.00,,,0.00,Wunderground v.1.15,2013-02-26 08:33:00,
2013-02-26 03:34:00,37.2,27.2,30.03,East,88,3.0,4.0,67,0.00,,,0.00,Wunderground v.1.15,2013-02-26 08:34:00,
2013-02-26 03:37:00,37.1,26.8,30.02,NE,51,3.0,6.0,66,0.00,,,0.00,Wunderground v.1.15,2013-02-26 08:37:00,
2013-02-26 03:39:00,37.1,26.8,30.02,NE,51,2.0,6.0,66,0.00,,,0.00,Wunderground v.1.15,2013-02-26 08:39:00,
2013-02-26 03:42:00,37.0,26.7,30.02,WNW,291,3.0,3.0,66,0.00,,,0.00,Wunderground v.1.15,2013-02-26 08:42:00,
2013-02-26 03:44:00,37.0,26.7,30.02,ENE,58,3.0,5.0,66,0.00,,,0.00,Wunderground v.1.15,2013-02-26 08:44:00,
2013-02-26 03:45:00,37.0,26.7,30.02,NE,54,2.0,5.0,66,0.00,,,0.00,Wunderground v.1.15,2013-02-26 08:45:00,
2013-02-26 03:47:00,37.0,27.1,30.02,ENE,65,1.0,5.0,67,0.00,,,0.00,Wunderground v.1.15,2013-02-26 08:47:00,
2013-02-26 03:49:00,36.9,26.6,30.01,NE,39,2.0,5.0,66,0.00,,,0.00,Wunderground v.1.15,2013-02-26 08:49:00,
2013-02-26 03:50:00,36.9,26.6,30.01,NNE,30,2.0,5.0,66,0.00,,,0.00,Wunderground v.1.15,2013-02-26 08:50:00,
2013-02-26 03:53:00,36.9,27.0,30.01,ENE,65,3.0,6.0,67,0.00,,,0.00,Wunderground v.1.15,2013-02-26 08:53:00,
2013-02-26 03:54:00,36.9,26.6,30.01,NNE,29,4.0,6.0,66,0.00,,,0.00,Wunderground v.1.15,2013-02-26 08:54:00,
2013-02-26 03:55:00,36.9,26.6,30.01,West,271,1.0,6.0,66,0.00,,,0.00,Wunderground v.1.15,2013-02-26 08:55:00,
2013-02-26 03:58:00,36.9,27.0,30.01,ENE,66,4.0,6.0,67,0.00,,,0.00,Wunderground v.1.15,2013-02-26 08:58:00,
2013-02-26 03:59:00,36.9,27.0,30.01,ENE,63,3.0,6.0,67,0.00,,,0.00,Wunderground v.1.15,2013-02-26 08:59:00,
2013-02-26 04:00:00,36.8,26.9,30.00,NE,49,4.0,4.0,67,0.00,,,0.00,Wunderground v.1.15,2013-02-26 09:00:00,
2013-02-26 04:03:00,36.9,27.0,30.00,NE,34,4.0,4.0,67,0.00,,,0.00,Wunderground v.1.15,2013-02-26 09:03:00,
2013-02-26 04:05:00,36.9,27.0,30.00,ENE,69,2.0,6.0,67,0.00,,,0.00,Wunderground v.1.15,2013-02-26 09:05:00,
2013-02-26 04:08:00,36.9,27.3,29.99,NE,37,2.0,6.0,68,0.00,,,0.00,Wunderground v.1.15,2013-02-26 09:08:00,
2013-02-26 04:10:00,36.9,27.7,29.99,NE,40,4.0,4.0,69,0.00,,,0.00,Wunderground v.1.15,2013-02-26 09:10:00,
2013-02-26 04:13:00,36.9,27.3,30.00,ENE,68,3.0,5.0,68,0.00,,,0.00,Wunderground v.1.15,2013-02-26 09:13:00,
2013-02-26 04:15:00,36.9,27.3,29.99,NE,37,4.0,7.0,68,0.00,,,0.00,Wunderground v.1.15,2013-02-26 09:15:00,
2013-02-26 04:18:00,36.9,27.7,29.99,NE,44,2.0,7.0,69,0.00,,,0.00,Wunderground v.1.15,2013-02-26 09:18:00,
2013-02-26 04:20:00,36.9,27.3,29.99,North,351,4.0,4.0,68,0.00,,,0.00,Wunderground v.1.15,2013-02-26 09:20:00,
2013-02-26 04:23:00,36.9,27.3,29.99,NE,56,2.0,5.0,68,0.00,,,0.00,Wunderground v.1.15,2013-02-26 09:23:00,
2013-02-26 04:25:00,36.9,27.3,30.00,East,88,4.0,6.0,68,0.00,,,0.00,Wunderground v.1.15,2013-02-26 09:25:00,
2013-02-26 04:28:00,37.0,27.4,30.00,East,79,3.0,6.0,68,0.00,,,0.00,Wunderground v.1.15,2013-02-26 09:28:00,
2013-02-26 04:30:00,37.0,27.8,30.00,ENE,71,2.0,4.0,69,0.00,,,0.00,Wunderground v.1.15,2013-02-26 09:30:00,
2013-02-26 04:31:00,37.0,27.8,30.00,NE,49,4.0,4.0,69,0.00,,,0.00,Wunderground v.1.15,2013-02-26 09:31:00,
2013-02-26 04:33:00,37.0,27.8,30.00,NE,48,2.0,6.0,69,0.00,,,0.00,Wunderground v.1.15,2013-02-26 09:33:00,
2013-02-26 04:36:00,37.1,27.9,30.00,NE,37,2.0,6.0,69,0.00,,,0.00,Wunderground v.1.15,2013-02-26 09:36:00,
2013-02-26 04:39:00,37.1,27.9,30.01,NE,56,2.0,6.0,69,0.00,,,0.00,Wunderground v.1.15,2013-02-26 09:39:00,
2013-02-26 04:41:00,37.1,27.9,30.01,East,85,4.0,4.0,69,0.00,,,0.00,Wunderground v.1.15,2013-02-26 09:41:00,
2013-02-26 04:44:00,37.2,28.0,30.02,NNE,30,1.0,4.0,69,0.00,,,0.00,Wunderground v.1.15,2013-02-26 09:44:00,
2013-02-26 04:46:00,37.2,28.0,30.01,ENE,60,2.0,4.0,69,0.00,,,0.00,Wunderground v.1.15,2013-02-26 09:46:00,
2013-02-26 04:47:00,37.2,28.0,30.01,ENE,57,2.0,4.0,69,0.00,,,0.00,Wunderground v.1.15,2013-02-26 09:47:00,
2013-02-26 04:49:00,37.2,28.0,30.02,NNE,32,1.0,4.0,69,0.00,,,0.00,Wunderground v.1.15,2013-02-26 09:49:00,
2013-02-26 04:51:00,37.2,28.0,30.02,ESE,116,1.0,3.0,69,0.00,,,0.00,Wunderground v.1.15,2013-02-26 09:51:00,
2013-02-26 04:52:00,37.3,28.1,30.02,ENE,73,2.0,3.0,69,0.00,,,0.00,Wunderground v.1.15,2013-02-26 09:52:00,
2013-02-26 04:54:00,37.3,28.4,30.02,NNE,31,1.0,3.0,70,0.00,,,0.00,Wunderground v.1.15,2013-02-26 09:54:00,
2013-02-26 04:56:00,37.3,28.1,30.01,NE,50,2.0,5.0,69,0.00,,,0.00,Wunderground v.1.15,2013-02-26 09:56:00,
2013-02-26 04:57:00,37.3,28.1,30.01,ENE,75,2.0,6.0,69,0.00,,,0.00,Wunderground v.1.15,2013-02-26 09:57:00,
2013-02-26 04:59:00,37.3,28.1,30.01,NE,52,2.0,6.0,69,0.00,,,0.00,Wunderground v.1.15,2013-02-26 09:59:00,
2013-02-26 05:01:00,37.3,28.4,30.01,NE,46,3.0,4.0,70,0.00,,,0.00,Wunderground v.1.15,2013-02-26 10:01:00,
2013-02-26 05:02:00,37.4,28.5,30.01,NE,35,4.0,4.0,70,0.00,,,0.00,Wunderground v.1.15,2013-02-26 10:02:00,
2013-02-26 05:04:00,37.4,28.5,30.00,NE,56,1.0,5.0,70,0.00,,,0.00,Wunderground v.1.15,2013-02-26 10:04:00,
2013-02-26 05:06:00,37.4,28.9,30.00,East,89,4.0,5.0,71,0.00,,,0.00,Wunderground v.1.15,2013-02-26 10:06:00,
2013-02-26 05:07:00,37.4,28.9,29.99,NE,37,7.0,7.0,71,0.00,,,0.00,Wunderground v.1.15,2013-02-26 10:07:00,
2013-02-26 05:09:00,37.4,28.9,29.99,NNE,33,6.0,8.0,71,0.00,,,0.00,Wunderground v.1.15,2013-02-26 10:09:00,
2013-02-26 05:11:00,37.4,28.9,29.99,ENE,73,4.0,6.0,71,0.00,,,0.00,Wunderground v.1.15,2013-02-26 10:11:00,
2013-02-26 05:12:00,37.4,28.9,29.99,ENE,77,3.0,6.0,71,0.00,,,0.00,Wunderground v.1.15,2013-02-26 10:12:00,
2013-02-26 05:14:00,37.4,28.9,29.98,ENE,68,3.0,9.0,71,0.00,,,0.00,Wunderground v.1.15,2013-02-26 10:14:00,
2013-02-26 05:17:00,37.5,29.3,29.99,NE,56,1.0,9.0,72,0.00,,,0.00,Wunderground v.1.15,2013-02-26 10:17:00,
2013-02-26 05:20:00,37.5,29.3,29.99,ENE,65,6.0,9.0,72,0.00,,,0.00,Wunderground v.1.15,2013-02-26 10:20:00,
2013-02-26 05:22:00,37.5,29.3,29.99,NE,48,4.0,6.0,72,0.00,,,0.00,Wunderground v.1.15,2013-02-26 10:22:00,
2013-02-26 05:23:00,37.5,29.3,29.99,ENE,69,7.0,8.0,72,0.00,,,0.00,Wunderground v.1.15,2013-02-26 10:23:00,
2013-02-26 05:25:00,37.5,29.3,29.99,NE,37,2.0,8.0,72,0.00,,,0.00,Wunderground v.1.15,2013-02-26 10:25:00,
2013-02-26 05:27:00,37.5,29.6,29.99,NE,37,2.0,8.0,73,0.00,,,0.00,Wunderground v.1.15,2013-02-26 10:27:00,
2013-02-26 05:28:00,37.5,29.6,29.99,ENE,72,6.0,8.0,73,0.00,,,0.00,Wunderground v.1.15,2013-02-26 10:28:00,
2013-02-26 05:30:00,37.5,29.6,29.99,ENE,65,2.0,4.0,73,0.00,,,0.00,Wunderground v.1.15,2013-02-26 10:30:00,
2013-02-26 05:32:00,37.5,29.6,29.99,ENE,60,4.0,8.0,73,0.00,,,0.00,Wunderground v.1.15,2013-02-26 10:32:00,
2013-02-26 05:33:00,37.5,29.6,29.99,ENE,66,2.0,8.0,73,0.00,,,0.00,Wunderground v.1.15,2013-02-26 10:33:00,
2013-02-26 05:35:00,37.5,29.6,29.99,NE,34,3.0,8.0,73,0.00,,,0.00,Wunderground v.1.15,2013-02-26 10:35:00,
2013-02-26 05:37:00,37.5,29.6,29.99,North,354,7.0,8.0,73,0.00,,,0.00,Wunderground v.1.15,2013-02-26 10:37:00,
2013-02-26 05:38:00,37.5,29.6,29.99,NNE,27,3.0,8.0,73,0.00,,,0.00,Wunderground v.1.15,2013-02-26 10:38:00,
2013-02-26 05:39:00,37.5,29.6,29.99,NNE,26,2.0,8.0,73,0.00,,,0.00,Wunderground v.1.15,2013-02-26 10:39:00,
2013-02-26 05:40:00,37.5,29.6,29.99,NNW,348,5.0,6.0,73,0.00,,,0.00,Wunderground v.1.15,2013-02-26 10:40:00,
2013-02-26 05:43:00,37.5,29.6,29.99,ENE,75,3.0,6.0,73,0.00,,,0.00,Wunderground v.1.15,2013-02-26 10:43:00,
2013-02-26 05:44:00,37.5,30.0,29.99,North,358,4.0,6.0,74,0.00,,,0.00,Wunderground v.1.15,2013-02-26 10:44:00,
2013-02-26 05:45:00,37.6,30.1,29.99,NNE,16,3.0,6.0,74,0.00,,,0.00,Wunderground v.1.15,2013-02-26 10:45:00,
2013-02-26 05:48:00,37.5,30.0,29.98,NNW,327,3.0,6.0,74,0.00,,,0.00,Wunderground v.1.15,2013-02-26 10:48:00,
2013-02-26 05:49:00,37.5,30.0,29.98,NE,38,2.0,6.0,74,0.00,,,0.00,Wunderground v.1.15,2013-02-26 10:49:00,
2013-02-26 05:50:00,37.5,30.0,29.98,NNW,338,2.0,3.0,74,0.00,,,0.00,Wunderground v.1.15,2013-02-26 10:50:00,
2013-02-26 05:53:00,37.5,30.3,29.98,NE,43,3.0,6.0,75,0.00,,,0.00,Wunderground v.1.15,2013-02-26 10:53:00,
2013-02-26 05:54:00,37.6,30.4,29.98,NE,41,2.0,6.0,75,0.00,,,0.00,Wunderground v.1.15,2013-02-26 10:54:00,
2013-02-26 05:55:00,37.5,30.3,29.98,ENE,63,2.0,6.0,75,0.00,,,0.00,Wunderground v.1.15,2013-02-26 10:55:00,
2013-02-26 05:58:00,37.5,30.3,29.98,NNE,27,3.0,6.0,75,0.00,,,0.00,Wunderground v.1.15,2013-02-26 10:58:00,
2013-02-26 05:59:00,37.5,30.3,29.98,NNE,30,2.0,6.0,75,0.00,,,0.00,Wunderground v.1.15,2013-02-26 10:59:00,
2013-02-26 06:01:00,37.6,30.4,29.98,NE,49,5.0,5.0,75,0.00,,,0.00,Wunderground v.1.15,2013-02-26 11:01:00,
2013-02-26 06:04:00,37.6,30.4,29.98,NNE,32,3.0,5.0,75,0.00,,,0.00,Wunderground v.1.15,2013-02-26 11:04:00,
2013-02-26 06:05:00,37.5,30.6,29.98,East,80,5.0,5.0,76,0.00,,,0.00,Wunderground v.1.15,2013-02-26 11:05:00,
2013-02-26 06:06:00,37.5,30.6,29.98,ESE,105,4.0,6.0,76,0.00,,,0.00,Wunderground v.1.15,2013-02-26 11:06:00,
2013-02-26 06:09:00,37.5,30.9,29.98,NNW,330,3.0,6.0,77,0.00,,,0.00,Wunderground v.1.15,2013-02-26 11:09:00,
2013-02-26 06:10:00,37.5,30.9,29.98,NE,50,4.0,4.0,77,0.00,,,0.00,Wunderground v.1.15,2013-02-26 11:10:00,
2013-02-26 06:11:00,37.5,31.3,29.98,North,349,5.0,5.0,78,0.00,,,0.00,Wunderground v.1.15,2013-02-26 11:11:00,
2013-02-26 06:14:00,37.4,31.5,29.99,ENE,67,2.0,5.0,79,0.00,,,0.00,Wunderground v.1.15,2013-02-26 11:14:00,
2013-02-26 06:15:00,37.3,31.4,29.98,NE,39,3.0,5.0,79,0.00,,,0.00,Wunderground v.1.15,2013-02-26 11:15:00,
2013-02-26 06:17:00,37.3,31.7,29.99,North,3,4.0,7.0,80,0.00,,,0.00,Wunderground v.1.15,2013-02-26 11:17:00,
2013-02-26 06:19:00,37.2,31.6,29.99,ENE,63,2.0,7.0,80,0.00,,,0.00,Wunderground v.1.15,2013-02-26 11:19:00,
2013-02-26 06:20:00,37.2,31.6,29.99,North,350,2.0,4.0,80,0.00,,,0.00,Wunderground v.1.15,2013-02-26 11:20:00,
2013-02-26 06:22:00,37.1,31.8,29.99,ENE,70,5.0,7.0,81,0.00,,,0.00,Wunderground v.1.15,2013-02-26 11:22:00,
2013-02-26 06:24:00,37.0,31.7,29.99,NNE,32,3.0,8.0,81,0.00,,,0.00,Wunderground v.1.15,2013-02-26 11:24:00,
2013-02-26 06:25:00,37.0,31.7,29.99,NE,37,4.0,8.0,81,0.00,,,0.00,Wunderground v.1.15,2013-02-26 11:25:00,
2013-02-26 06:27:00,36.9,31.9,29.99,NE,42,2.0,8.0,82,0.00,,,0.00,Wunderground v.1.15,2013-02-26 11:27:00,
2013-02-26 06:29:00,36.9,31.9,29.99,North,1,3.0,8.0,82,0.00,,,0.00,Wunderground v.1.15,2013-02-26 11:29:00,
2013-02-26 06:30:00,36.8,32.1,29.99,East,89,2.0,3.0,83,0.00,,,0.00,Wunderground v.1.15,2013-02-26 11:30:00,
2013-02-26 06:33:00,36.8,32.1,29.99,NE,35,2.0,5.0,83,0.00,,,0.00,Wunderground v.1.15,2013-02-26 11:33:00,
2013-02-26 06:34:00,36.7,32.3,29.99,ENE,68,3.0,5.0,84,0.00,,,0.00,Wunderground v.1.15,2013-02-26 11:34:00,
2013-02-26 06:35:00,36.7,32.3,29.99,ENE,63,6.0,6.0,84,0.00,,,0.00,Wunderground v.1.15,2013-02-26 11:35:00,
2013-02-26 06:38:00,36.6,32.5,29.99,ENE,78,2.0,7.0,85,0.00,,,0.00,Wunderground v.1.15,2013-02-26 11:38:00,
2013-02-26 06:39:00,36.5,32.7,29.99,NNE,16,2.0,7.0,86,0.00,,,0.01,Wunderground v.1.15,2013-02-26 11:39:00,
2013-02-26 06:40:00,36.5,32.7,29.99,ENE,75,1.0,3.0,86,0.00,,,0.01,Wunderground v.1.15,2013-02-26 11:40:00,
2013-02-26 06:43:00,36.4,32.9,29.99,NE,52,3.0,5.0,87,0.14,,,0.02,Wunderground v.1.15,2013-02-26 11:43:00,
2013-02-26 06:44:00,36.4,32.9,29.98,East,94,2.0,5.0,87,0.14,,,0.02,Wunderground v.1.15,2013-02-26 11:44:00,
2013-02-26 06:45:00,36.3,32.8,29.98,East,91,2.0,5.0,87,0.14,,,0.02,Wunderground v.1.15,2013-02-26 11:45:00,
2013-02-26 06:49:00,36.3,33.1,29.98,ENE,68,2.0,5.0,88,0.11,,,0.02,Wunderground v.1.15,2013-02-26 11:49:00,
2013-02-26 06:50:00,36.2,33.0,29.98,ENE,72,2.0,2.0,88,0.09,,,0.02,Wunderground v.1.15,2013-02-26 11:50:00,
2013-02-26 06:51:00,36.2,33.0,29.98,NNE,31,1.0,3.0,88,0.09,,,0.03,Wunderground v.1.15,2013-02-26 11:51:00,
2013-02-26 06:54:00,36.1,33.2,29.98,NE,40,5.0,8.0,89,0.09,,,0.03,Wunderground v.1.15,2013-02-26 11:54:00,
2013-02-26 06:55:00,36.1,33.2,29.98,East,84,4.0,8.0,89,0.09,,,0.03,Wunderground v.1.15,2013-02-26 11:55:00,
2013-02-26 06:56:00,36.1,33.2,29.98,NE,56,2.0,8.0,89,0.09,,,0.03,Wunderground v.1.15,2013-02-26 11:56:00,
2013-02-26 07:00:00,36.1,33.2,29.98,NE,46,1.0,8.0,89,0.10,,,0.04,Wunderground v.1.15,2013-02-26 12:00:00,
2013-02-26 07:01:00,36.1,33.5,29.98,NNE,24,2.0,3.0,90,0.15,,,0.05,Wunderground v.1.15,2013-02-26 12:01:00,
2013-02-26 07:05:00,36.0,33.4,29.97,NE,44,2.0,6.0,90,0.12,,,0.05,Wunderground v.1.15,2013-02-26 12:05:00,
2013-02-26 07:06:00,36.0,33.4,29.98,ENE,75,2.0,6.0,90,0.11,,,0.06,Wunderground v.1.15,2013-02-26 12:06:00,
2013-02-26 07:07:00,36.0,33.4,29.97,North,353,2.0,6.0,90,0.11,,,0.06,Wunderground v.1.15,2013-02-26 12:07:00,
2013-02-26 07:10:00,36.0,33.6,29.97,ENE,72,1.0,2.0,91,0.11,,,0.06,Wunderground v.1.15,2013-02-26 12:10:00,
2013-02-26 07:11:00,36.0,33.6,29.97,ENE,69,2.0,2.0,91,0.10,,,0.06,Wunderground v.1.15,2013-02-26 12:11:00,
2013-02-26 07:12:00,36.0,33.6,29.97,East,86,1.0,3.0,91,0.09,,,0.06,Wunderground v.1.15,2013-02-26 12:12:00,
2013-02-26 07:15:00,35.9,33.5,29.98,NE,53,2.0,3.0,91,0.06,,,0.06,Wunderground v.1.15,2013-02-26 12:15:00,
2013-02-26 07:16:00,36.0,33.6,29.98,ENE,76,2.0,3.0,91,0.06,,,0.07,Wunderground v.1.15,2013-02-26 12:16:00,
2013-02-26 07:17:00,35.9,33.5,29.98,ENE,62,2.0,3.0,91,0.06,,,0.07,Wunderground v.1.15,2013-02-26 12:17:00,
2013-02-26 07:20:00,36.0,33.6,29.97,NE,37,3.0,3.0,91,0.06,,,0.07,Wunderground v.1.15,2013-02-26 12:20:00,
2013-02-26 07:22:00,36.0,33.9,29.97,NE,52,3.0,7.0,92,0.11,,,0.08,Wunderground v.1.15,2013-02-26 12:22:00,
2013-02-26 07:25:00,36.0,33.9,29.97,NNE,20,2.0,7.0,92,0.11,,,0.08,Wunderground v.1.15,2013-02-26 12:25:00,
2013-02-26 07:27:00,36.0,33.9,29.97,NE,54,3.0,7.0,92,0.13,,,0.09,Wunderground v.1.15,2013-02-26 12:27:00,
2013-02-26 07:28:00,36.0,33.9,29.97,NNE,26,3.0,7.0,92,0.13,,,0.09,Wunderground v.1.15,2013-02-26 12:28:00,
2013-02-26 07:30:00,36.0,33.9,29.97,NNE,29,1.0,3.0,92,0.21,,,0.10,Wunderground v.1.15,2013-02-26 12:30:00,
2013-02-26 07:33:00,36.0,33.9,29.97,NNE,32,1.0,3.0,92,0.19,,,0.11,Wunderground v.1.15,2013-02-26 12:33:00,
2013-02-26 07:35:00,36.0,33.9,29.96,NE,39,3.0,3.0,92,0.15,,,0.11,Wunderground v.1.15,2013-02-26 12:35:00,
2013-02-26 07:38:00,36.1,34.0,29.96,NE,51,3.0,4.0,92,0.15,,,0.12,Wunderground v.1.15,2013-02-26 12:38:00,
2013-02-26 07:40:00,36.1,34.3,29.96,NNE,23,4.0,4.0,93,0.12,,,0.12,Wunderground v.1.15,2013-02-26 12:40:00,
2013-02-26 07:43:00,36.1,34.3,29.95,NE,39,5.0,6.0,93,0.10,,,0.13,Wunderground v.1.15,2013-02-26 12:43:00,
2013-02-26 07:45:00,36.0,34.2,29.95,East,89,3.0,6.0,93,0.10,,,0.13,Wunderground v.1.15,2013-02-26 12:45:00,
2013-02-26 07:48:00,36.0,34.2,29.95,ENE,78,3.0,7.0,93,0.09,,,0.13,Wunderground v.1.15,2013-02-26 12:48:00,
2013-02-26 07:49:00,36.1,34.3,29.95,ESE,105,1.0,7.0,93,0.07,,,0.13,Wunderground v.1.15,2013-02-26 12:49:00,
2013-02-26 07:50:00,36.1,34.3,29.95,ENE,68,3.0,4.0,93,0.06,,,0.13,Wunderground v.1.15,2013-02-26 12:50:00,
2013-02-26 07:53:00,36.1,34.3,29.95,NE,40,2.0,6.0,93,0.05,,,0.13,Wunderground v.1.15,2013-02-26 12:53:00,
2013-02-26 07:54:00,36.1,34.3,29.95,ENE,68,3.0,6.0,93,0.05,,,0.14,Wunderground v.1.15,2013-02-26 12:54:00,
2013-02-26 07:56:00,36.2,34.4,29.95,NE,56,5.0,6.0,93,0.05,,,0.14,Wunderground v.1.15,2013-02-26 12:56:00,
2013-02-26 07:58:00,36.2,34.4,29.95,NE,38,1.0,6.0,93,0.05,,,0.14,Wunderground v.1.15,2013-02-26 12:58:00,
2013-02-26 07:59:00,36.2,34.4,29.95,NE,54,4.0,6.0,93,0.05,,,0.14,Wunderground v.1.15,2013-02-26 12:59:00,
2013-02-26 08:01:00,36.2,34.4,29.95,NE,46,2.0,5.0,93,0.05,,,0.14,Wunderground v.1.15,2013-02-26 13:01:00,
2013-02-26 08:03:00,36.2,34.4,29.95,NE,50,2.0,9.0,93,0.05,,,0.14,Wunderground v.1.15,2013-02-26 13:03:00,
2013-02-26 08:04:00,36.3,34.5,29.94,ENE,65,4.0,9.0,93,0.06,,,0.15,Wunderground v.1.15,2013-02-26 13:04:00,
2013-02-26 08:06:00,36.3,34.5,29.95,NW,304,1.0,9.0,93,0.06,,,0.15,Wunderground v.1.15,2013-02-26 13:06:00,
2013-02-26 08:08:00,36.3,34.5,29.95,ENE,69,3.0,9.0,93,0.06,,,0.15,Wunderground v.1.15,2013-02-26 13:08:00,
2013-02-26 08:09:00,36.3,34.5,29.95,NE,49,3.0,9.0,93,0.06,,,0.15,Wunderground v.1.15,2013-02-26 13:09:00,
2013-02-26 08:12:00,36.4,34.6,29.94,ENE,70,4.0,9.0,93,0.06,,,0.15,Wunderground v.1.15,2013-02-26 13:12:00,
2013-02-26 08:14:00,36.4,34.6,29.94,ENE,65,2.0,9.0,93,0.06,,,0.15,Wunderground v.1.15,2013-02-26 13:14:00,
2013-02-26 08:17:00,36.5,34.7,29.95,ENE,69,3.0,9.0,93,0.05,,,0.15,Wunderground v.1.15,2013-02-26 13:17:00,
2013-02-26 08:19:00,36.5,34.7,29.94,East,92,3.0,9.0,93,0.04,,,0.15,Wunderground v.1.15,2013-02-26 13:19:00,
2013-02-26 08:20:00,36.6,35.0,29.94,ENE,77,3.0,3.0,94,0.04,,,0.15,Wunderground v.1.15,2013-02-26 13:20:00,
2013-02-26 08:22:00,36.7,35.1,29.94,ENE,69,5.0,7.0,94,0.00,,,0.15,Wunderground v.1.15,2013-02-26 13:22:00,
2013-02-26 08:24:00,36.8,35.2,29.94,ENE,72,3.0,7.0,94,0.00,,,0.15,Wunderground v.1.15,2013-02-26 13:24:00,
2013-02-26 08:25:00,36.8,35.2,29.94,ENE,69,4.0,7.0,94,0.00,,,0.15,Wunderground v.1.15,2013-02-26 13:25:00,
2013-02-26 08:27:00,36.9,35.3,29.94,ENE,62,5.0,7.0,94,0.00,,,0.15,Wunderground v.1.15,2013-02-26 13:27:00,
2013-02-26 08:29:00,36.9,35.3,29.94,NNE,27,1.0,7.0,94,0.00,,,0.15,Wunderground v.1.15,2013-02-26 13:29:00,
2013-02-26 08:30:00,36.9,35.3,29.94,NE,41,5.0,5.0,94,0.00,,,0.16,Wunderground v.1.15,2013-02-26 13:30:00,
2013-02-26 08:32:00,37.1,35.5,29.94,NE,34,4.0,5.0,94,0.00,,,0.16,Wunderground v.1.15,2013-02-26 13:32:00,
2013-02-26 08:34:00,37.1,35.5,29.93,NE,47,6.0,7.0,94,0.00,,,0.16,Wunderground v.1.15,2013-02-26 13:34:00,
2013-02-26 08:35:00,37.2,35.6,29.93,NE,46,4.0,7.0,94,0.00,,,0.16,Wunderground v.1.15,2013-02-26 13:35:00,
2013-02-26 08:37:00,37.3,35.7,29.93,ENE,65,3.0,7.0,94,0.00,,,0.16,Wunderground v.1.15,2013-02-26 13:37:00,
2013-02-26 08:39:00,37.3,35.7,29.93,NNE,32,3.0,7.0,94,0.00,,,0.16,Wunderground v.1.15,2013-02-26 13:39:00,
2013-02-26 08:40:00,37.3,35.7,29.93,ENE,61,2.0,3.0,94,0.00,,,0.16,Wunderground v.1.15,2013-02-26 13:40:00,
2013-02-26 08:41:00,37.4,35.8,29.93,ENE,62,4.0,4.0,94,0.00,,,0.16,Wunderground v.1.15,2013-02-26 13:41:00,
2013-02-26 08:42:00,37.5,35.9,29.93,NE,53,3.0,5.0,94,0.00,,,0.16,Wunderground v.1.15,2013-02-26 13:42:00,
2013-02-26 08:44:00,37.5,35.9,29.92,NE,52,5.0,5.0,94,0.00,,,0.16,Wunderground v.1.15,2013-02-26 13:44:00,
2013-02-26 08:45:00,37.5,35.9,29.92,NE,56,3.0,5.0,94,0.00,,,0.16,Wunderground v.1.15,2013-02-26 13:45:00,
2013-02-26 08:46:00,37.6,36.0,29.92,NE,54,5.0,5.0,94,0.00,,,0.16,Wunderground v.1.15,2013-02-26 13:46:00,
2013-02-26 08:47:00,37.6,36.0,29.92,ENE,65,3.0,5.0,94,0.00,,,0.17,Wunderground v.1.15,2013-02-26 13:47:00,
2013-02-26 08:50:00,37.7,36.1,29.92,East,88,5.0,7.0,94,0.00,,,0.17,Wunderground v.1.15,2013-02-26 13:50:00,
2013-02-26 08:51:00,37.8,36.2,29.92,NE,41,4.0,5.0,94,0.00,,,0.17,Wunderground v.1.15,2013-02-26 13:51:00,
2013-02-26 08:52:00,37.8,36.2,29.92,ENE,65,3.0,5.0,94,0.00,,,0.17,Wunderground v.1.15,2013-02-26 13:52:00,
2013-02-26 08:55:00,37.9,36.3,29.93,East,79,3.0,8.0,94,0.00,,,0.17,Wunderground v.1.15,2013-02-26 13:55:00,
2013-02-26 08:56:00,37.9,36.3,29.93,NNE,24,2.0,8.0,94,0.07,,,0.17,Wunderground v.1.15,2013-02-26 13:56:00,
2013-02-26 08:57:00,37.9,36.3,29.92,NNE,29,4.0,8.0,94,0.07,,,0.18,Wunderground v.1.15,2013-02-26 13:57:00,
2013-02-26 09:00:00,38.0,36.4,29.93,NE,51,3.0,3.0,94,0.07,,,0.18,Wunderground v.1.15,2013-02-26 14:00:00,
2013-02-26 09:01:00,38.0,36.4,29.93,NE,40,4.0,4.0,94,0.07,,,0.18,Wunderground v.1.15,2013-02-26 14:01:00,
2013-02-26 09:03:00,38.1,36.5,29.93,ESE,104,7.0,7.0,94,0.09,,,0.19,Wunderground v.1.15,2013-02-26 14:03:00,
2013-02-26 09:05:00,38.1,36.5,29.93,ENE,69,4.0,7.0,94,0.09,,,0.19,Wunderground v.1.15,2013-02-26 14:05:00,
2013-02-26 09:06:00,38.1,36.5,29.93,ENE,68,3.0,7.0,94,0.09,,,0.19,Wunderground v.1.15,2013-02-26 14:06:00,
2013-02-26 09:08:00,38.1,36.5,29.93,NE,48,2.0,7.0,94,0.09,,,0.19,Wunderground v.1.15,2013-02-26 14:08:00,
2013-02-26 09:10:00,38.2,36.6,29.93,NE,56,2.0,4.0,94,0.09,,,0.20,Wunderground v.1.15,2013-02-26 14:10:00,
2013-02-26 09:11:00,38.3,36.7,29.93,ENE,58,4.0,5.0,94,0.09,,,0.20,Wunderground v.1.15,2013-02-26 14:11:00,
2013-02-26 09:12:00,38.3,36.7,29.93,ENE,60,3.0,5.0,94,0.09,,,0.20,Wunderground v.1.15,2013-02-26 14:12:00,
2013-02-26 09:13:00,38.3,36.7,29.92,ENE,60,2.0,5.0,94,0.09,,,0.20,Wunderground v.1.15,2013-02-26 14:13:00,
2013-02-26 09:15:00,38.4,36.8,29.92,East,88,1.0,5.0,94,0.09,,,0.20,Wunderground v.1.15,2013-02-26 14:15:00,
2013-02-26 09:16:00,38.4,36.8,29.92,ENE,58,2.0,5.0,94,0.10,,,0.21,Wunderground v.1.15,2013-02-26 14:16:00,
2013-02-26 09:17:00,38.4,36.8,29.92,NE,51,2.0,5.0,94,0.10,,,0.21,Wunderground v.1.15,2013-02-26 14:17:00,
2013-02-26 09:18:00,38.5,36.9,29.92,NE,41,3.0,5.0,94,0.10,,,0.21,Wunderground v.1.15,2013-02-26 14:18:00,
2013-02-26 09:20:00,38.6,37.3,29.92,NE,54,4.0,5.0,95,0.14,,,0.22,Wunderground v.1.15,2013-02-26 14:20:00,
2013-02-26 09:21:00,38.6,37.3,29.92,NE,51,5.0,7.0,95,0.14,,,0.22,Wunderground v.1.15,2013-02-26 14:21:00,
2013-02-26 09:22:00,38.6,37.3,29.92,NNW,345,3.0,7.0,95,0.14,,,0.22,Wunderground v.1.15,2013-02-26 14:22:00,
2013-02-26 09:24:00,38.7,37.4,29.91,NNE,20,3.0,7.0,95,0.14,,,0.22,Wunderground v.1.15,2013-02-26 14:24:00,
2013-02-26 09:26:00,38.7,37.4,29.91,ENE,76,2.0,7.0,95,0.10,,,0.23,Wunderground v.1.15,2013-02-26 14:26:00,
2013-02-26 09:27:00,38.8,37.5,29.91,East,94,2.0,7.0,95,0.10,,,0.23,Wunderground v.1.15,2013-02-26 14:27:00,
2013-02-26 09:29:00,38.9,37.6,29.91,ENE,60,3.0,7.0,95,0.10,,,0.23,Wunderground v.1.15,2013-02-26 14:29:00,
2013-02-26 09:31:00,38.9,37.6,29.91,ENE,61,3.0,4.0,95,0.10,,,0.23,Wunderground v.1.15,2013-02-26 14:31:00,
2013-02-26 09:32:00,39.0,37.7,29.91,East,79,2.0,4.0,95,0.09,,,0.23,Wunderground v.1.15,2013-02-26 14:32:00,
2013-02-26 09:34:00,39.1,37.8,29.91,ENE,69,5.0,5.0,95,0.07,,,0.24,Wunderground v.1.15,2013-02-26 14:34:00,
2013-02-26 09:36:00,39.2,37.9,29.90,ENE,63,3.0,5.0,95,0.07,,,0.24,Wunderground v.1.15,2013-02-26 14:36:00,
2013-02-26 09:37:00,39.3,38.0,29.90,ENE,76,3.0,5.0,95,0.07,,,0.24,Wunderground v.1.15,2013-02-26 14:37:00,
2013-02-26 09:39:00,39.4,38.1,29.90,ENE,71,5.0,9.0,95,0.07,,,0.24,Wunderground v.1.15,2013-02-26 14:39:00,
2013-02-26 09:41:00,39.5,38.2,29.90,ENE,75,9.0,9.0,95,0.07,,,0.24,Wunderground v.1.15,2013-02-26 14:41:00,
2013-02-26 09:42:00,39.5,38.2,29.90,NE,52,3.0,9.0,95,0.07,,,0.24,Wunderground v.1.15,2013-02-26 14:42:00,
2013-02-26 09:44:00,39.6,38.3,29.90,ENE,63,6.0,9.0,95,0.06,,,0.24,Wunderground v.1.15,2013-02-26 14:44:00,
2013-02-26 09:46:00,39.7,38.4,29.89,ENE,71,7.0,9.0,95,0.05,,,0.24,Wunderground v.1.15,2013-02-26 14:46:00,
2013-02-26 09:47:00,39.7,38.4,29.89,ENE,72,3.0,9.0,95,0.04,,,0.24,Wunderground v.1.15,2013-02-26 14:47:00,
2013-02-26 09:49:00,39.8,38.5,29.89,ENE,63,6.0,10.0,95,0.04,,,0.24,Wunderground v.1.15,2013-02-26 14:49:00,
2013-02-26 09:52:00,39.9,38.6,29.89,ENE,60,5.0,10.0,95,0.04,,,0.25,Wunderground v.1.15,2013-02-26 14:52:00,
2013-02-26 09:53:00,39.9,38.6,29.88,NE,52,4.0,10.0,95,0.04,,,0.25,Wunderground v.1.15,2013-02-26 14:53:00,
2013-02-26 09:54:00,40.0,38.7,29.88,NNE,29,3.0,10.0,95,0.04,,,0.25,Wunderground v.1.15,2013-02-26 14:54:00,
2013-02-26 09:57:00,40.1,38.8,29.88,ENE,77,5.0,10.0,95,0.04,,,0.25,Wunderground v.1.15,2013-02-26 14:57:00,
2013-02-26 09:58:00,40.1,38.8,29.88,NE,47,3.0,10.0,95,0.04,,,0.25,Wunderground v.1.15,2013-02-26 14:58:00,
2013-02-26 09:59:00,40.2,38.9,29.87,ENE,78,1.0,10.0,95,0.04,,,0.25,Wunderground v.1.15,2013-02-26 14:59:00,
2013-02-26 10:02:00,40.3,39.0,29.88,NNE,12,0.0,4.0,95,0.07,,,0.26,Wunderground v.1.15,2013-02-26 15:02:00,
2013-02-26 10:03:00,40.3,39.0,29.88,ENE,63,3.0,4.0,95,0.07,,,0.26,Wunderground v.1.15,2013-02-26 15:03:00,
2013-02-26 10:04:00,40.4,39.1,29.88,NE,39,1.0,4.0,95,0.07,,,0.26,Wunderground v.1.15,2013-02-26 15:04:00,
2013-02-26 10:07:00,40.5,39.2,29.88,ENE,59,5.0,5.0,95,0.11,,,0.27,Wunderground v.1.15,2013-02-26 15:07:00,
2013-02-26 10:08:00,40.5,39.2,29.88,East,81,3.0,8.0,95,0.11,,,0.27,Wunderground v.1.15,2013-02-26 15:08:00,
2013-02-26 10:10:00,40.6,39.3,29.88,WNW,295,1.0,3.0,95,0.11,,,0.27,Wunderground v.1.15,2013-02-26 15:10:00,
2013-02-26 10:12:00,40.7,39.4,29.87,ENE,67,4.0,4.0,95,0.08,,,0.27,Wunderground v.1.15,2013-02-26 15:12:00,
2013-02-26 10:13:00,40.8,39.5,29.87,ENE,59,2.0,4.0,95,0.08,,,0.28,Wunderground v.1.15,2013-02-26 15:13:00,
2013-02-26 10:14:00,40.8,39.5,29.86,NNE,18,4.0,4.0,95,0.08,,,0.28,Wunderground v.1.15,2013-02-26 15:14:00,
2013-02-26 10:16:00,40.9,39.6,29.87,ENE,59,5.0,8.0,95,0.08,,,0.28,Wunderground v.1.15,2013-02-26 15:16:00,
2013-02-26 10:17:00,40.9,39.6,29.87,ENE,61,3.0,8.0,95,0.08,,,0.28,Wunderground v.1.15,2013-02-26 15:17:00,
2013-02-26 10:18:00,41.0,39.7,29.88,NE,53,3.0,8.0,95,0.08,,,0.28,Wunderground v.1.15,2013-02-26 15:18:00,
2013-02-26 10:19:00,41.0,39.7,29.87,NNE,32,6.0,8.0,95,0.08,,,0.28,Wunderground v.1.15,2013-02-26 15:19:00,
2013-02-26 10:21:00,41.1,39.8,29.87,ENE,72,4.0,4.0,95,0.08,,,0.29,Wunderground v.1.15,2013-02-26 15:21:00,
2013-02-26 10:23:00,41.2,39.9,29.87,ENE,69,3.0,7.0,95,0.08,,,0.29,Wunderground v.1.15,2013-02-26 15:23:00,
2013-02-26 10:24:00,41.2,39.9,29.87,NE,47,2.0,7.0,95,0.08,,,0.29,Wunderground v.1.15,2013-02-26 15:24:00,
2013-02-26 10:26:00,41.3,40.0,29.87,East,91,2.0,7.0,95,0.10,,,0.30,Wunderground v.1.15,2013-02-26 15:26:00,
2013-02-26 10:28:00,41.3,40.0,29.87,ENE,66,2.0,7.0,95,0.10,,,0.30,Wunderground v.1.15,2013-02-26 15:28:00,
2013-02-26 10:29:00,41.3,40.0,29.87,ENE,68,4.0,7.0,95,0.10,,,0.30,Wunderground v.1.15,2013-02-26 15:29:00,
2013-02-26 10:31:00,41.4,40.1,29.86,ENE,67,2.0,5.0,95,0.11,,,0.30,Wunderground v.1.15,2013-02-26 15:31:00,
2013-02-26 10:33:00,41.5,40.2,29.86,ENE,68,5.0,7.0,95,0.38,,,0.32,Wunderground v.1.15,2013-02-26 15:33:00,
2013-02-26 10:34:00,41.5,40.2,29.85,NNE,29,3.0,7.0,95,0.38,,,0.32,Wunderground v.1.15,2013-02-26 15:34:00,
2013-02-26 10:36:00,41.5,40.2,29.84,ENE,77,5.0,7.0,95,0.18,,,0.32,Wunderground v.1.15,2013-02-26 15:36:00,
2013-02-26 10:39:00,41.6,40.3,29.85,ENE,60,3.0,7.0,95,0.15,,,0.33,Wunderground v.1.15,2013-02-26 15:39:00,
2013-02-26 10:41:00,41.7,40.4,29.84,ENE,65,3.0,7.0,95,0.13,,,0.33,Wunderground v.1.15,2013-02-26 15:41:00,
2013-02-26 10:44:00,41.8,40.5,29.84,NE,41,4.0,8.0,95,0.13,,,0.34,Wunderground v.1.15,2013-02-26 15:44:00,
2013-02-26 10:46:00,41.9,40.6,29.83,East,82,3.0,8.0,95,0.18,,,0.35,Wunderground v.1.15,2013-02-26 15:46:00,
2013-02-26 10:49:00,42.1,41.0,29.84,SE,129,1.0,15.0,96,0.23,,,0.36,Wunderground v.1.15,2013-02-26 15:49:00,
2013-02-26 10:50:00,42.1,41.0,29.83,NE,48,1.0,15.0,96,0.25,,,0.36,Wunderground v.1.15,2013-02-26 15:50:00,
2013-02-26 10:51:00,42.2,41.1,29.83,SE,125,0.0,4.0,96,0.25,,,0.37,Wunderground v.1.15,2013-02-26 15:51:00,
2013-02-26 10:54:00,42.3,41.2,29.83,NE,46,7.0,13.0,96,0.19,,,0.38,Wunderground v.1.15,2013-02-26 15:54:00,
2013-02-26 10:55:00,42.3,41.2,29.83,ENE,72,4.0,13.0,96,0.19,,,0.38,Wunderground v.1.15,2013-02-26 15:55:00,
2013-02-26 10:56:00,42.5,41.4,29.82,NE,37,7.0,13.0,96,0.16,,,0.39,Wunderground v.1.15,2013-02-26 15:56:00,
2013-02-26 10:59:00,42.7,41.6,29.82,NW,314,3.0,13.0,96,0.16,,,0.39,Wunderground v.1.15,2013-02-26 15:59:00,
2013-02-26 11:00:00,42.7,41.6,29.82,ENE,72,3.0,4.0,96,0.16,,,0.39,Wunderground v.1.15,2013-02-26 16:00:00,
2013-02-26 11:01:00,42.8,41.7,29.82,NNE,27,4.0,8.0,96,0.11,,,0.39,Wunderground v.1.15,2013-02-26 16:01:00,
2013-02-26 11:04:00,42.9,41.8,29.82,NE,56,3.0,9.0,96,0.07,,,0.39,Wunderground v.1.15,2013-02-26 16:04:00,
2013-02-26 11:05:00,42.8,41.7,29.82,ENE,78,3.0,9.0,96,0.07,,,0.39,Wunderground v.1.15,2013-02-26 16:05:00,
2013-02-26 11:07:00,42.9,41.8,29.82,South,190,1.0,9.0,96,0.07,,,0.40,Wunderground v.1.15,2013-02-26 16:07:00,
2013-02-26 11:10:00,42.9,41.8,29.82,NNE,33,8.0,8.0,96,0.07,,,0.40,Wunderground v.1.15,2013-02-26 16:10:00,
2013-02-26 11:12:00,43.0,41.7,29.81,ENE,78,10.0,10.0,95,0.07,,,0.40,Wunderground v.1.15,2013-02-26 16:12:00,
2013-02-26 11:15:00,43.1,42.0,29.81,ENE,58,7.0,11.0,96,0.08,,,0.41,Wunderground v.1.15,2013-02-26 16:15:00,
2013-02-26 11:17:00,43.2,42.1,29.81,NNE,27,5.0,11.0,96,0.08,,,0.41,Wunderground v.1.15,2013-02-26 16:17:00,
2013-02-26 11:20:00,43.3,42.2,29.80,East,91,1.0,5.0,96,0.08,,,0.41,Wunderground v.1.15,2013-02-26 16:20:00,
2013-02-26 11:22:00,43.4,42.3,29.80,East,99,2.0,8.0,96,0.07,,,0.42,Wunderground v.1.15,2013-02-26 16:22:00,
2013-02-26 11:25:00,43.5,42.4,29.80,NE,53,4.0,8.0,96,0.07,,,0.42,Wunderground v.1.15,2013-02-26 16:25:00,
2013-02-26 11:27:00,43.7,42.6,29.80,SSW,210,3.0,12.0,96,0.07,,,0.42,Wunderground v.1.15,2013-02-26 16:27:00,
2013-02-26 11:30:00,43.9,42.8,29.80,NE,44,5.0,13.0,96,0.10,,,0.43,Wunderground v.1.15,2013-02-26 16:30:00,
2013-02-26 11:33:00,44.0,42.9,29.80,NE,41,3.0,13.0,96,0.14,,,0.44,Wunderground v.1.15,2013-02-26 16:33:00,
2013-02-26 11:35:00,44.2,43.1,29.79,ENE,63,1.0,13.0,96,0.14,,,0.44,Wunderground v.1.15,2013-02-26 16:35:00,
2013-02-26 11:37:00,44.3,43.2,29.79,ENE,57,4.0,13.0,96,0.13,,,0.44,Wunderground v.1.15,2013-02-26 16:37:00,
2013-02-26 11:38:00,44.3,43.2,29.79,ENE,77,3.0,13.0,96,0.13,,,0.45,Wunderground v.1.15,2013-02-26 16:38:00,
2013-02-26 11:41:00,44.7,43.6,29.80,NNE,30,4.0,4.0,96,0.16,,,0.46,Wunderground v.1.15,2013-02-26 16:41:00,
2013-02-26 11:42:00,44.8,43.7,29.79,NE,37,2.0,11.0,96,0.16,,,0.46,Wunderground v.1.15,2013-02-26 16:42:00,
2013-02-26 11:43:00,44.9,43.8,29.79,NE,50,7.0,13.0,96,0.26,,,0.46,Wunderground v.1.15,2013-02-26 16:43:00,
2013-02-26 11:46:00,45.2,44.1,29.79,ENE,72,8.0,13.0,96,0.35,,,0.48,Wunderground v.1.15,2013-02-26 16:46:00,
2013-02-26 11:47:00,45.3,44.2,29.79,East,86,3.0,13.0,96,0.23,,,0.48,Wunderground v.1.15,2013-02-26 16:47:00,
2013-02-26 11:48:00,45.3,44.2,29.79,NE,54,2.0,13.0,96,0.18,,,0.48,Wunderground v.1.15,2013-02-26 16:48:00,
2013-02-26 11:51:00,45.6,44.5,29.78,ENE,72,3.0,6.0,96,0.15,,,0.49,Wunderground v.1.15,2013-02-26 16:51:00,
2013-02-26 11:52:00,45.6,44.5,29.78,ENE,78,2.0,6.0,96,0.15,,,0.49,Wunderground v.1.15,2013-02-26 16:52:00,
2013-02-26 11:53:00,45.7,44.6,29.78,NE,40,3.0,6.0,96,0.13,,,0.49,Wunderground v.1.15,2013-02-26 16:53:00,
2013-02-26 11:56:00,45.9,44.8,29.79,ENE,75,7.0,8.0,96,0.11,,,0.50,Wunderground v.1.15,2013-02-26 16:56:00,
2013-02-26 11:57:00,45.9,44.8,29.79,NE,50,4.0,10.0,96,0.22,,,0.51,Wunderground v.1.15,2013-02-26 16:57:00,
2013-02-26 11:58:00,46.0,44.9,29.78,ENE,65,3.0,10.0,96,0.22,,,0.51,Wunderground v.1.15,2013-02-26 16:58:00,
2013-02-26 12:01:00,46.1,45.0,29.78,ENE,78,7.0,7.0,96,0.13,,,0.52,Wunderground v.1.15,2013-02-26 17:01:00,
2013-02-26 12:02:00,46.1,45.0,29.78,NE,50,5.0,7.0,96,0.13,,,0.52,Wunderground v.1.15,2013-02-26 17:02:00,
2013-02-26 12:03:00,46.2,45.1,29.78,East,80,7.0,15.0,96,0.13,,,0.52,Wunderground v.1.15,2013-02-26 17:03:00,
2013-02-26 12:06:00,46.4,45.3,29.77,SW,232,2.0,15.0,96,0.11,,,0.52,Wunderground v.1.15,2013-02-26 17:06:00,
2013-02-26 12:07:00,46.4,45.3,29.77,NE,56,4.0,15.0,96,0.10,,,0.52,Wunderground v.1.15,2013-02-26 17:07:00,
2013-02-26 12:08:00,46.5,45.4,29.77,East,82,3.0,15.0,96,0.09,,,0.53,Wunderground v.1.15,2013-02-26 17:08:00,
2013-02-26 12:11:00,46.6,45.5,29.77,ENE,75,3.0,6.0,96,0.19,,,0.54,Wunderground v.1.15,2013-02-26 17:11:00,
2013-02-26 12:12:00,46.6,45.5,29.76,ENE,69,4.0,6.0,96,0.19,,,0.54,Wunderground v.1.15,2013-02-26 17:12:00,
2013-02-26 12:13:00,46.7,45.6,29.76,East,80,2.0,6.0,96,0.19,,,0.54,Wunderground v.1.15,2013-02-26 17:13:00,
2013-02-26 12:16:00,46.8,45.7,29.76,ENE,72,9.0,13.0,96,0.24,,,0.55,Wunderground v.1.15,2013-02-26 17:16:00,
2013-02-26 12:17:00,46.8,45.7,29.75,East,94,4.0,13.0,96,0.24,,,0.56,Wunderground v.1.15,2013-02-26 17:17:00,
2013-02-26 12:18:00,46.9,45.8,29.75,East,91,4.0,13.0,96,0.24,,,0.56,Wunderground v.1.15,2013-02-26 17:18:00,
2013-02-26 12:22:00,47.1,46.0,29.75,NNE,16,5.0,7.0,96,0.15,,,0.57,Wunderground v.1.15,2013-02-26 17:22:00,
2013-02-26 12:23:00,47.2,46.1,29.75,ENE,75,5.0,7.0,96,0.15,,,0.57,Wunderground v.1.15,2013-02-26 17:23:00,
2013-02-26 12:24:00,47.2,46.1,29.75,ENE,77,4.0,7.0,96,0.15,,,0.57,Wunderground v.1.15,2013-02-26 17:24:00,
2013-02-26 12:27:00,47.5,46.4,29.75,NE,37,2.0,9.0,96,0.10,,,0.58,Wunderground v.1.15,2013-02-26 17:27:00,
2013-02-26 12:28:00,47.6,46.5,29.75,NE,43,7.0,9.0,96,0.10,,,0.58,Wunderground v.1.15,2013-02-26 17:28:00,
2013-02-26 12:29:00,47.6,46.5,29.75,NE,49,6.0,9.0,96,0.10,,,0.58,Wunderground v.1.15,2013-02-26 17:29:00,
2013-02-26 12:32:00,47.9,46.8,29.74,ENE,63,6.0,14.0,96,0.10,,,0.58,Wunderground v.1.15,2013-02-26 17:32:00,
2013-02-26 12:34:00,48.0,46.9,29.73,East,97,3.0,14.0,96,0.08,,,0.58,Wunderground v.1.15,2013-02-26 17:34:00,
2013-02-26 12:37:00,48.3,47.2,29.72,NE,44,5.0,15.0,96,0.06,,,0.58,Wunderground v.1.15,2013-02-26 17:37:00,
2013-02-26 12:39:00,48.5,47.4,29.72,ENE,65,4.0,15.0,96,0.05,,,0.58,Wunderground v.1.15,2013-02-26 17:39:00,
2013-02-26 12:42:00,48.9,47.8,29.72,ESE,120,4.0,9.0,96,0.04,,,0.58,Wunderground v.1.15,2013-02-26 17:42:00,
2013-02-26 12:43:00,48.9,47.8,29.72,NNE,32,6.0,9.0,96,0.04,,,0.58,Wunderground v.1.15,2013-02-26 17:43:00,
2013-02-26 12:44:00,49.0,47.9,29.71,ENE,69,2.0,11.0,96,0.00,,,0.58,Wunderground v.1.15,2013-02-26 17:44:00,
2013-02-26 12:47:00,49.1,48.0,29.71,ENE,72,6.0,15.0,96,0.00,,,0.59,Wunderground v.1.15,2013-02-26 17:47:00,
2013-02-26 12:49:00,49.1,48.0,29.71,East,84,3.0,15.0,96,0.00,,,0.59,Wunderground v.1.15,2013-02-26 17:49:00,
2013-02-26 12:52:00,49.2,48.1,29.70,ENE,75,4.0,6.0,96,0.00,,,0.59,Wunderground v.1.15,2013-02-26 17:52:00,
2013-02-26 12:54:00,49.3,48.2,29.70,East,86,2.0,7.0,96,0.00,,,0.59,Wunderground v.1.15,2013-02-26 17:54:00,
2013-02-26 12:57:00,49.4,48.3,29.70,ESE,106,5.0,7.0,96,0.00,,,0.59,Wunderground v.1.15,2013-02-26 17:57:00,
2013-02-26 12:59:00,49.5,48.4,29.69,NE,34,2.0,8.0,96,0.00,,,0.59,Wunderground v.1.15,2013-02-26 17:59:00,
2013-02-26 13:00:00,49.5,48.4,29.69,NNE,29,5.0,8.0,96,0.00,,,0.59,Wunderground v.1.15,2013-02-26 18:00:00,
2013-02-26 13:02:00,49.7,48.6,29.68,NE,56,7.0,10.0,96,0.00,,,0.60,Wunderground v.1.15,2013-02-26 18:02:00,
2013-02-26 13:04:00,49.8,48.7,29.68,ENE,63,19.0,19.0,96,0.00,,,0.60,Wunderground v.1.15,2013-02-26 18:04:00,
2013-02-26 13:05:00,49.8,48.7,29.68,NE,35,16.0,19.0,96,0.00,,,0.60,Wunderground v.1.15,2013-02-26 18:05:00,
2013-02-26 13:07:00,49.9,48.8,29.68,SE,124,3.0,19.0,96,0.00,,,0.60,Wunderground v.1.15,2013-02-26 18:07:00,
2013-02-26 13:10:00,49.9,48.5,29.68,ENE,65,6.0,6.0,95,0.00,,,0.60,Wunderground v.1.15,2013-02-26 18:10:00,
2013-02-26 13:13:00,50.1,49.0,29.68,ENE,76,3.0,7.0,96,0.00,,,0.60,Wunderground v.1.15,2013-02-26 18:13:00,
2013-02-26 13:15:00,50.1,49.0,29.68,NE,55,6.0,7.0,96,0.00,,,0.60,Wunderground v.1.15,2013-02-26 18:15:00,
2013-02-26 13:18:00,50.3,49.2,29.68,NE,51,5.0,7.0,96,0.00,,,0.60,Wunderground v.1.15,2013-02-26 18:18:00,
2013-02-26 13:20:00,50.3,49.2,29.67,ENE,57,4.0,4.0,96,0.00,,,0.60,Wunderground v.1.15,2013-02-26 18:20:00,
2013-02-26 13:23:00,50.4,49.3,29.67,SE,144,0.0,11.0,96,0.00,,,0.60,Wunderground v.1.15,2013-02-26 18:23:00,
2013-02-26 13:25:00,50.4,49.3,29.67,ENE,75,2.0,11.0,96,0.00,,,0.60,Wunderground v.1.15,2013-02-26 18:25:00,
2013-02-26 13:28:00,50.5,49.4,29.67,ENE,62,8.0,12.0,96,0.00,,,0.60,Wunderground v.1.15,2013-02-26 18:28:00,
2013-02-26 13:30:00,50.6,49.5,29.68,SE,126,1.0,4.0,96,0.00,,,0.60,Wunderground v.1.15,2013-02-26 18:30:00,
2013-02-26 13:33:00,50.8,49.7,29.67,NNE,27,6.0,8.0,96,0.00,,,0.61,Wunderground v.1.15,2013-02-26 18:33:00,
2013-02-26 13:35:00,50.9,49.8,29.67,ESE,121,3.0,8.0,96,0.17,,,0.62,Wunderground v.1.15,2013-02-26 18:35:00,
2013-02-26 13:36:00,50.9,49.8,29.67,NNE,29,10.0,10.0,96,0.45,,,0.63,Wunderground v.1.15,2013-02-26 18:36:00,
2013-02-26 13:38:00,51.0,49.9,29.66,ENE,70,4.0,10.0,96,0.29,,,0.64,Wunderground v.1.15,2013-02-26 18:38:00,
2013-02-26 13:40:00,51.0,49.9,29.66,East,94,2.0,4.0,96,0.17,,,0.64,Wunderground v.1.15,2013-02-26 18:40:00,
2013-02-26 13:41:00,51.0,49.9,29.66,NE,56,3.0,6.0,96,0.14,,,0.64,Wunderground v.1.15,2013-02-26 18:41:00,
2013-02-26 13:44:00,51.1,50.0,29.65,ENE,63,4.0,9.0,96,0.08,,,0.64,Wunderground v.1.15,2013-02-26 18:44:00,
2013-02-26 13:45:00,51.1,50.0,29.65,NE,39,6.0,9.0,96,0.07,,,0.65,Wunderground v.1.15,2013-02-26 18:45:00,
2013-02-26 13:46:00,51.2,50.1,29.64,ESE,109,2.0,11.0,96,0.07,,,0.65,Wunderground v.1.15,2013-02-26 18:46:00,
2013-02-26 13:49:00,51.3,50.2,29.64,East,80,8.0,11.0,96,0.07,,,0.65,Wunderground v.1.15,2013-02-26 18:49:00,
2013-02-26 13:50:00,51.4,50.3,29.64,ENE,78,10.0,12.0,96,0.14,,,0.66,Wunderground v.1.15,2013-02-26 18:50:00,
2013-02-26 13:51:00,51.5,50.4,29.64,ENE,60,5.0,12.0,96,0.14,,,0.66,Wunderground v.1.15,2013-02-26 18:51:00,
2013-02-26 13:54:00,51.6,50.5,29.64,East,100,4.0,12.0,96,0.12,,,0.66,Wunderground v.1.15,2013-02-26 18:54:00,
2013-02-26 13:55:00,51.7,50.6,29.64,ENE,72,10.0,12.0,96,0.10,,,0.66,Wunderground v.1.15,2013-02-26 18:55:00,
2013-02-26 13:56:00,51.7,50.6,29.63,NNE,32,4.0,12.0,96,0.09,,,0.66,Wunderground v.1.15,2013-02-26 18:56:00,
2013-02-26 14:00:00,51.8,50.7,29.63,East,81,4.0,4.0,96,0.06,,,0.66,Wunderground v.1.15,2013-02-26 19:00:00,
2013-02-26 14:01:00,51.8,50.7,29.64,ENE,64,4.0,9.0,96,0.05,,,0.66,Wunderground v.1.15,2013-02-26 19:01:00,
2013-02-26 14:02:00,51.9,50.8,29.63,NE,40,5.0,9.0,96,0.05,,,0.66,Wunderground v.1.15,2013-02-26 19:02:00,
2013-02-26 14:05:00,52.0,50.9,29.63,ESE,106,4.0,10.0,96,0.04,,,0.66,Wunderground v.1.15,2013-02-26 19:05:00,
2013-02-26 14:06:00,52.0,50.9,29.63,NE,56,3.0,10.0,96,0.04,,,0.66,Wunderground v.1.15,2013-02-26 19:06:00,
2013-02-26 14:07:00,52.0,50.9,29.63,ENE,68,5.0,10.0,96,0.00,,,0.66,Wunderground v.1.15,2013-02-26 19:07:00,
2013-02-26 14:10:00,52.0,50.9,29.63,ENE,70,5.0,8.0,96,0.00,,,0.66,Wunderground v.1.15,2013-02-26 19:10:00,
2013-02-26 14:11:00,52.0,50.9,29.63,ENE,70,3.0,8.0,96,0.00,,,0.66,Wunderground v.1.15,2013-02-26 19:11:00,
2013-02-26 14:12:00,52.1,51.0,29.63,ESE,103,3.0,8.0,96,0.00,,,0.66,Wunderground v.1.15,2013-02-26 19:12:00,
2013-02-26 14:15:00,52.2,51.1,29.63,ENE,65,6.0,8.0,96,0.00,,,0.66,Wunderground v.1.15,2013-02-26 19:15:00,
2013-02-26 14:16:00,52.2,51.1,29.63,NE,51,1.0,8.0,96,0.00,,,0.66,Wunderground v.1.15,2013-02-26 19:16:00,
2013-02-26 14:18:00,52.2,51.1,29.62,SSE,154,0.0,8.0,96,0.00,,,0.66,Wunderground v.1.15,2013-02-26 19:18:00,
2013-02-26 14:20:00,52.3,51.2,29.62,ESE,103,2.0,3.0,96,0.00,,,0.66,Wunderground v.1.15,2013-02-26 19:20:00,
2013-02-26 14:21:00,52.4,51.3,29.63,SE,134,1.0,11.0,96,0.00,,,0.66,Wunderground v.1.15,2013-02-26 19:21:00,
2013-02-26 14:23:00,52.5,51.4,29.63,ENE,57,3.0,11.0,96,0.00,,,0.66,Wunderground v.1.15,2013-02-26 19:23:00,
2013-02-26 14:25:00,52.6,51.5,29.62,NE,51,1.0,11.0,96,0.00,,,0.66,Wunderground v.1.15,2013-02-26 19:25:00,
2013-02-26 14:26:00,52.6,51.5,29.62,ESE,120,1.0,11.0,96,0.00,,,0.66,Wunderground v.1.15,2013-02-26 19:26:00,
2013-02-26 14:28:00,52.6,51.5,29.62,South,178,2.0,11.0,96,0.00,,,0.66,Wunderground v.1.15,2013-02-26 19:28:00,
2013-02-26 14:30:00,52.7,51.6,29.61,East,87,2.0,4.0,96,0.00,,,0.66,Wunderground v.1.15,2013-02-26 19:30:00,
2013-02-26 14:31:00,52.7,51.6,29.61,ENE,61,7.0,7.0,96,0.00,,,0.66,Wunderground v.1.15,2013-02-26 19:31:00,
2013-02-26 14:34:00,52.8,51.7,29.61,ENE,75,2.0,12.0,96,0.00,,,0.67,Wunderground v.1.15,2013-02-26 19:34:00,
2013-02-26 14:35:00,52.8,51.7,29.61,East,80,4.0,12.0,96,0.00,,,0.67,Wunderground v.1.15,2013-02-26 19:35:00,
2013-02-26 14:36:00,52.8,51.7,29.60,ENE,74,4.0,12.0,96,0.00,,,0.67,Wunderground v.1.15,2013-02-26 19:36:00,
2013-02-26 14:37:00,52.8,51.7,29.61,ENE,65,4.0,12.0,96,0.00,,,0.67,Wunderground v.1.15,2013-02-26 19:37:00,
2013-02-26 14:39:00,52.9,51.8,29.60,East,82,3.0,12.0,96,0.00,,,0.67,Wunderground v.1.15,2013-02-26 19:39:00,
2013-02-26 14:40:00,52.9,51.8,29.60,ENE,61,5.0,7.0,96,0.00,,,0.67,Wunderground v.1.15,2013-02-26 19:40:00,
2013-02-26 14:41:00,52.9,51.8,29.61,ENE,68,6.0,7.0,96,0.00,,,0.67,Wunderground v.1.15,2013-02-26 19:41:00,
2013-02-26 14:42:00,53.0,51.9,29.60,SE,146,2.0,7.0,96,0.00,,,0.67,Wunderground v.1.15,2013-02-26 19:42:00,
2013-02-26 14:44:00,53.0,51.9,29.60,ENE,59,5.0,7.0,96,0.00,,,0.67,Wunderground v.1.15,2013-02-26 19:44:00,
2013-02-26 14:45:00,53.0,51.9,29.60,East,94,1.0,7.0,96,0.00,,,0.67,Wunderground v.1.15,2013-02-26 19:45:00,
2013-02-26 14:46:00,53.0,51.9,29.60,ENE,69,2.0,7.0,96,0.00,,,0.67,Wunderground v.1.15,2013-02-26 19:46:00,
2013-02-26 14:47:00,53.0,51.9,29.60,East,83,1.0,7.0,96,0.00,,,0.67,Wunderground v.1.15,2013-02-26 19:47:00,
2013-02-26 14:49:00,53.1,52.0,29.59,NE,42,4.0,10.0,96,0.00,,,0.67,Wunderground v.1.15,2013-02-26 19:49:00,
2013-02-26 14:50:00,53.2,52.1,29.59,East,82,3.0,7.0,96,0.00,,,0.67,Wunderground v.1.15,2013-02-26 19:50:00,
2013-02-26 14:51:00,53.2,52.1,29.59,East,89,3.0,7.0,96,0.00,,,0.67,Wunderground v.1.15,2013-02-26 19:51:00,
2013-02-26 14:52:00,53.2,52.1,29.59,NE,34,8.0,8.0,96,0.00,,,0.67,Wunderground v.1.15,2013-02-26 19:52:00,
2013-02-26 14:54:00,53.3,52.2,29.58,ENE,57,6.0,9.0,96,0.00,,,0.67,Wunderground v.1.15,2013-02-26 19:54:00,
2013-02-26 14:56:00,53.3,52.2,29.58,ENE,65,6.0,10.0,96,0.00,,,0.67,Wunderground v.1.15,2013-02-26 19:56:00,
2013-02-26 14:57:00,53.4,52.3,29.57,South,183,2.0,10.0,96,0.00,,,0.67,Wunderground v.1.15,2013-02-26 19:57:00,
2013-02-26 14:59:00,53.5,52.4,29.57,East,90,7.0,10.0,96,0.00,,,0.67,Wunderground v.1.15,2013-02-26 19:59:00,
2013-02-26 15:01:00,53.7,52.6,29.57,ENE,70,4.0,11.0,96,0.00,,,0.67,Wunderground v.1.15,2013-02-26 20:01:00,
2013-02-26 15:02:00,53.7,52.6,29.57,ENE,65,6.0,11.0,96,0.00,,,0.67,Wunderground v.1.15,2013-02-26 20:02:00,
2013-02-26 15:05:00,53.9,52.8,29.56,ENE,63,6.0,11.0,96,0.00,,,0.67,Wunderground v.1.15,2013-02-26 20:05:00,
2013-02-26 15:06:00,54.0,52.9,29.56,ENE,74,2.0,11.0,96,0.00,,,0.67,Wunderground v.1.15,2013-02-26 20:06:00,
2013-02-26 15:07:00,54.1,53.0,29.56,ENE,57,2.0,11.0,96,0.00,,,0.67,Wunderground v.1.15,2013-02-26 20:07:00,
2013-02-26 15:10:00,54.3,53.2,29.55,South,184,0.0,4.0,96,0.00,,,0.67,Wunderground v.1.15,2013-02-26 20:10:00,
2013-02-26 15:11:00,54.4,53.6,29.55,East,84,6.0,9.0,97,0.00,,,0.67,Wunderground v.1.15,2013-02-26 20:11:00,
2013-02-26 15:12:00,54.4,53.6,29.55,East,83,4.0,9.0,97,0.00,,,0.67,Wunderground v.1.15,2013-02-26 20:12:00,
2013-02-26 15:13:00,54.5,53.7,29.55,ENE,77,2.0,9.0,97,0.00,,,0.67,Wunderground v.1.15,2013-02-26 20:13:00,
2013-02-26 15:15:00,54.6,53.8,29.55,NE,56,2.0,9.0,97,0.00,,,0.67,Wunderground v.1.15,2013-02-26 20:15:00,
2013-02-26 15:16:00,54.7,53.6,29.55,East,100,4.0,12.0,96,0.00,,,0.67,Wunderground v.1.15,2013-02-26 20:16:00,
2013-02-26 15:17:00,54.7,53.6,29.55,ESE,115,1.0,12.0,96,0.00,,,0.67,Wunderground v.1.15,2013-02-26 20:17:00,
2013-02-26 15:19:00,54.8,53.7,29.56,ESE,119,2.0,12.0,96,0.00,,,0.67,Wunderground v.1.15,2013-02-26 20:19:00,
2013-02-26 15:20:00,54.9,53.8,29.56,ESE,106,1.0,4.0,96,0.00,,,0.67,Wunderground v.1.15,2013-02-26 20:20:00,
2013-02-26 15:21:00,54.9,53.8,29.56,ESE,103,1.0,4.0,96,0.00,,,0.67,Wunderground v.1.15,2013-02-26 20:21:00,
2013-02-26 15:22:00,54.9,53.8,29.56,ESE,113,1.0,4.0,96,0.00,,,0.67,Wunderground v.1.15,2013-02-26 20:22:00,
2013-02-26 15:24:00,55.0,53.9,29.56,ESE,106,2.0,4.0,96,0.00,,,0.67,Wunderground v.1.15,2013-02-26 20:24:00,
2013-02-26 15:25:00,55.0,53.9,29.56,ESE,122,2.0,4.0,96,0.00,,,0.67,Wunderground v.1.15,2013-02-26 20:25:00,
2013-02-26 15:26:00,55.1,54.0,29.56,SSE,150,2.0,5.0,96,0.00,,,0.67,Wunderground v.1.15,2013-02-26 20:26:00,
2013-02-26 15:27:00,55.1,54.0,29.57,SE,145,1.0,5.0,96,0.00,,,0.67,Wunderground v.1.15,2013-02-26 20:27:00,
2013-02-26 15:29:00,55.1,54.0,29.56,NE,51,6.0,6.0,96,0.00,,,0.67,Wunderground v.1.15,2013-02-26 20:29:00,
2013-02-26 15:30:00,55.2,54.1,29.56,ESE,119,4.0,4.0,96,0.00,,,0.67,Wunderground v.1.15,2013-02-26 20:30:00,
2013-02-26 15:31:00,55.2,54.1,29.56,ESE,110,2.0,4.0,96,0.00,,,0.67,Wunderground v.1.15,2013-02-26 20:31:00,
2013-02-26 15:32:00,55.2,54.1,29.56,South,173,1.0,4.0,96,0.00,,,0.67,Wunderground v.1.15,2013-02-26 20:32:00,
2013-02-26 15:34:00,55.3,54.2,29.57,SSW,194,2.0,4.0,96,0.00,,,0.67,Wunderground v.1.15,2013-02-26 20:34:00,
2013-02-26 15:35:00,55.4,54.3,29.57,South,170,3.0,5.0,96,0.00,,,0.67,Wunderground v.1.15,2013-02-26 20:35:00,
2013-02-26 15:37:00,55.5,54.4,29.56,East,92,5.0,5.0,96,0.00,,,0.67,Wunderground v.1.15,2013-02-26 20:37:00,
2013-02-26 15:39:00,55.5,54.4,29.54,ENE,71,3.0,8.0,96,0.00,,,0.67,Wunderground v.1.15,2013-02-26 20:39:00,
2013-02-26 15:41:00,55.6,54.5,29.54,East,100,4.0,9.0,96,0.00,,,0.67,Wunderground v.1.15,2013-02-26 20:41:00,
2013-02-26 15:42:00,55.6,54.5,29.55,SW,231,5.0,9.0,96,0.00,,,0.67,Wunderground v.1.15,2013-02-26 20:42:00,
2013-02-26 15:44:00,55.7,54.6,29.55,South,187,2.0,9.0,96,0.00,,,0.67,Wunderground v.1.15,2013-02-26 20:44:00,
2013-02-26 15:46:00,55.8,54.7,29.55,SSW,198,1.0,9.0,96,0.00,,,0.67,Wunderground v.1.15,2013-02-26 20:46:00,
2013-02-26 15:47:00,55.9,54.8,29.55,SW,236,1.0,9.0,96,0.00,,,0.67,Wunderground v.1.15,2013-02-26 20:47:00,
2013-02-26 15:48:00,55.9,54.8,29.55,SE,124,1.0,9.0,96,0.00,,,0.67,Wunderground v.1.15,2013-02-26 20:48:00,
2013-02-26 15:49:00,56.0,54.9,29.55,SSE,167,1.0,9.0,96,0.00,,,0.67,Wunderground v.1.15,2013-02-26 20:49:00,
2013-02-26 15:51:00,56.1,55.0,29.55,ENE,61,2.0,3.0,96,0.00,,,0.67,Wunderground v.1.15,2013-02-26 20:51:00,
2013-02-26 15:52:00,56.1,55.0,29.55,East,100,0.0,3.0,96,0.00,,,0.67,Wunderground v.1.15,2013-02-26 20:52:00,
2013-02-26 15:53:00,56.1,55.0,29.55,South,183,0.0,3.0,96,0.00,,,0.67,Wunderground v.1.15,2013-02-26 20:53:00,
2013-02-26 15:55:00,56.1,55.0,29.56,SSE,158,2.0,4.0,96,0.00,,,0.67,Wunderground v.1.15,2013-02-26 20:55:00,
2013-02-26 15:56:00,56.2,55.1,29.56,ESE,115,3.0,5.0,96,0.00,,,0.68,Wunderground v.1.15,2013-02-26 20:56:00,
2013-02-26 15:57:00,56.2,55.1,29.55,ESE,105,2.0,5.0,96,0.00,,,0.68,Wunderground v.1.15,2013-02-26 20:57:00,
2013-02-26 15:58:00,56.2,55.1,29.55,ESE,105,1.0,5.0,96,0.00,,,0.68,Wunderground v.1.15,2013-02-26 20:58:00,
2013-02-26 16:01:00,56.2,55.1,29.55,ESE,121,2.0,5.0,96,0.00,,,0.68,Wunderground v.1.15,2013-02-26 21:01:00,
2013-02-26 16:02:00,56.2,55.1,29.55,ESE,113,2.0,5.0,96,0.00,,,0.68,Wunderground v.1.15,2013-02-26 21:02:00,
2013-02-26 16:03:00,56.3,55.2,29.55,SSE,158,0.0,5.0,96,0.00,,,0.68,Wunderground v.1.15,2013-02-26 21:03:00,
2013-02-26 16:06:00,56.4,55.3,29.54,SE,142,3.0,6.0,96,0.00,,,0.68,Wunderground v.1.15,2013-02-26 21:06:00,
2013-02-26 16:07:00,56.4,55.3,29.54,East,100,2.0,6.0,96,0.05,,,0.69,Wunderground v.1.15,2013-02-26 21:07:00,
2013-02-26 16:08:00,56.4,55.3,29.54,NE,54,2.0,6.0,96,0.05,,,0.69,Wunderground v.1.15,2013-02-26 21:08:00,
2013-02-26 16:11:00,56.4,55.3,29.54,SSW,204,1.0,2.0,96,0.05,,,0.69,Wunderground v.1.15,2013-02-26 21:11:00,
2013-02-26 16:12:00,56.4,55.3,29.54,SSW,204,0.0,2.0,96,0.05,,,0.69,Wunderground v.1.15,2013-02-26 21:12:00,
2013-02-26 16:13:00,56.4,55.3,29.54,SE,125,0.0,2.0,96,0.05,,,0.69,Wunderground v.1.15,2013-02-26 21:13:00,
2013-02-26 16:16:00,56.4,55.3,29.54,ESE,119,1.0,2.0,96,0.05,,,0.69,Wunderground v.1.15,2013-02-26 21:16:00,
2013-02-26 16:17:00,56.4,55.3,29.54,East,86,0.0,2.0,96,0.05,,,0.69,Wunderground v.1.15,2013-02-26 21:17:00,
2013-02-26 16:18:00,56.4,55.3,29.54,East,97,1.0,2.0,96,0.05,,,0.69,Wunderground v.1.15,2013-02-26 21:18:00,
2013-02-26 16:21:00,56.4,55.3,29.54,ESE,119,0.0,1.0,96,0.04,,,0.69,Wunderground v.1.15,2013-02-26 21:21:00,
2013-02-26 16:22:00,56.4,55.3,29.54,ESE,117,1.0,1.0,96,0.04,,,0.69,Wunderground v.1.15,2013-02-26 21:22:00,
2013-02-26 16:23:00,56.5,55.4,29.54,ESE,117,1.0,1.0,96,0.04,,,0.69,Wunderground v.1.15,2013-02-26 21:23:00,
2013-02-26 16:26:00,56.5,55.7,29.54,SSE,148,0.0,1.0,97,0.00,,,0.69,Wunderground v.1.15,2013-02-26 21:26:00,
2013-02-26 16:27:00,56.5,55.7,29.54,SSE,148,0.0,1.0,97,0.00,,,0.70,Wunderground v.1.15,2013-02-26 21:27:00,
2013-02-26 16:28:00,56.5,55.7,29.54,SE,137,1.0,1.0,97,0.00,,,0.70,Wunderground v.1.15,2013-02-26 21:28:00,
2013-02-26 16:31:00,56.5,55.7,29.54,SSE,158,1.0,1.0,97,0.00,,,0.70,Wunderground v.1.15,2013-02-26 21:31:00,
2013-02-26 16:32:00,56.6,55.8,29.54,SSW,193,1.0,1.0,97,0.00,,,0.70,Wunderground v.1.15,2013-02-26 21:32:00,
2013-02-26 16:33:00,56.6,55.8,29.54,SSW,193,0.0,1.0,97,0.00,,,0.70,Wunderground v.1.15,2013-02-26 21:33:00,
2013-02-26 16:36:00,56.6,55.8,29.54,SW,214,0.0,1.0,97,0.00,,,0.70,Wunderground v.1.15,2013-02-26 21:36:00,
2013-02-26 16:37:00,56.7,55.9,29.54,SW,214,0.0,1.0,97,0.00,,,0.70,Wunderground v.1.15,2013-02-26 21:37:00,
2013-02-26 16:38:00,56.6,55.8,29.53,SW,214,0.0,1.0,97,0.00,,,0.70,Wunderground v.1.15,2013-02-26 21:38:00,
2013-02-26 16:42:00,56.7,55.9,29.53,SE,131,0.0,1.0,97,0.00,,,0.70,Wunderground v.1.15,2013-02-26 21:42:00,
2013-02-26 16:43:00,56.7,55.9,29.53,SE,131,0.0,1.0,97,0.00,,,0.70,Wunderground v.1.15,2013-02-26 21:43:00,
2013-02-26 16:44:00,56.7,55.9,29.52,ESE,110,1.0,2.0,97,0.00,,,0.70,Wunderground v.1.15,2013-02-26 21:44:00,
2013-02-26 16:47:00,56.8,56.0,29.52,SW,217,0.0,2.0,97,0.00,,,0.70,Wunderground v.1.15,2013-02-26 21:47:00,
2013-02-26 16:48:00,56.8,56.0,29.52,SW,217,0.0,2.0,97,0.00,,,0.70,Wunderground v.1.15,2013-02-26 21:48:00,
2013-02-26 16:49:00,56.8,56.0,29.52,SSW,193,0.0,2.0,97,0.00,,,0.70,Wunderground v.1.15,2013-02-26 21:49:00,
2013-02-26 16:52:00,56.9,56.1,29.52,SSW,193,0.0,0.0,97,0.00,,,0.70,Wunderground v.1.15,2013-02-26 21:52:00,
2013-02-26 16:53:00,56.9,56.1,29.52,SSW,193,0.0,0.0,97,0.00,,,0.70,Wunderground v.1.15,2013-02-26 21:53:00,
2013-02-26 16:54:00,57.0,56.2,29.52,SE,142,1.0,1.0,97,0.00,,,0.70,Wunderground v.1.15,2013-02-26 21:54:00,
2013-02-26 16:57:00,57.1,56.3,29.52,ESE,117,1.0,2.0,97,0.00,,,0.70,Wunderground v.1.15,2013-02-26 21:57:00,
2013-02-26 16:58:00,57.1,56.3,29.52,ESE,117,1.0,2.0,97,0.00,,,0.70,Wunderground v.1.15,2013-02-26 21:58:00,
2013-02-26 16:59:00,57.1,56.3,29.52,ESE,117,0.0,2.0,97,0.00,,,0.70,Wunderground v.1.15,2013-02-26 21:59:00,
2013-02-26 17:03:00,57.2,56.4,29.51,ESE,117,0.0,1.0,97,0.00,,,0.70,Wunderground v.1.15,2013-02-26 22:03:00,
2013-02-26 17:04:00,57.3,56.5,29.51,SE,130,0.0,1.0,97,0.00,,,0.70,Wunderground v.1.15,2013-02-26 22:04:00,
2013-02-26 17:08:00,57.5,56.7,29.51,SE,145,0.0,2.0,97,0.00,,,0.70,Wunderground v.1.15,2013-02-26 22:08:00,
2013-02-26 17:09:00,57.5,56.7,29.51,SSE,158,1.0,2.0,97,0.00,,,0.70,Wunderground v.1.15,2013-02-26 22:09:00,
2013-02-26 17:10:00,57.5,56.7,29.51,SSE,158,1.0,1.0,97,0.00,,,0.70,Wunderground v.1.15,2013-02-26 22:10:00,
2013-02-26 17:13:00,57.6,56.8,29.51,SSE,154,1.0,2.0,97,0.00,,,0.70,Wunderground v.1.15,2013-02-26 22:13:00,
2013-02-26 17:14:00,57.7,56.9,29.51,ESE,120,1.0,2.0,97,0.00,,,0.70,Wunderground v.1.15,2013-02-26 22:14:00,
2013-02-26 17:15:00,57.7,56.9,29.51,SSW,197,1.0,2.0,97,0.00,,,0.70,Wunderground v.1.15,2013-02-26 22:15:00,
2013-02-26 17:18:00,57.8,57.0,29.51,SSE,158,0.0,2.0,97,0.00,,,0.70,Wunderground v.1.15,2013-02-26 22:18:00,
2013-02-26 17:19:00,57.8,57.0,29.51,SSE,158,0.0,2.0,97,0.00,,,0.70,Wunderground v.1.15,2013-02-26 22:19:00,
2013-02-26 17:20:00,57.8,57.0,29.51,SSE,158,0.0,0.0,97,0.00,,,0.70,Wunderground v.1.15,2013-02-26 22:20:00,
2013-02-26 17:23:00,57.9,57.1,29.51,SSE,152,0.0,1.0,97,0.00,,,0.70,Wunderground v.1.15,2013-02-26 22:23:00,
2013-02-26 17:24:00,57.9,57.1,29.51,SSE,149,1.0,1.0,97,0.00,,,0.70,Wunderground v.1.15,2013-02-26 22:24:00,
2013-02-26 17:25:00,57.9,57.1,29.51,SSE,149,0.0,1.0,97,0.00,,,0.70,Wunderground v.1.15,2013-02-26 22:25:00,
2013-02-26 17:28:00,58.0,57.2,29.51,SSE,150,0.0,1.0,97,0.00,,,0.70,Wunderground v.1.15,2013-02-26 22:28:00,
2013-02-26 17:29:00,58.0,57.2,29.51,SE,142,1.0,1.0,97,0.00,,,0.70,Wunderground v.1.15,2013-02-26 22:29:00,
2013-02-26 17:30:00,58.0,57.2,29.51,East,101,0.0,1.0,97,0.00,,,0.70,Wunderground v.1.15,2013-02-26 22:30:00,
2013-02-26 17:33:00,58.1,57.3,29.51,SW,215,0.0,2.0,97,0.00,,,0.70,Wunderground v.1.15,2013-02-26 22:33:00,
2013-02-26 17:34:00,58.2,57.4,29.51,SW,215,0.0,2.0,97,0.00,,,0.70,Wunderground v.1.15,2013-02-26 22:34:00,
2013-02-26 17:35:00,58.2,57.4,29.51,South,173,0.0,2.0,97,0.00,,,0.70,Wunderground v.1.15,2013-02-26 22:35:00,
2013-02-26 17:38:00,58.3,57.5,29.51,East,100,0.0,2.0,97,0.00,,,0.70,Wunderground v.1.15,2013-02-26 22:38:00,
2013-02-26 17:39:00,58.3,57.5,29.51,East,101,0.0,2.0,97,0.00,,,0.70,Wunderground v.1.15,2013-02-26 22:39:00,
2013-02-26 17:40:00,58.3,57.5,29.51,East,101,0.0,0.0,97,0.00,,,0.70,Wunderground v.1.15,2013-02-26 22:40:00,
2013-02-26 17:41:00,58.3,57.5,29.51,ESE,104,0.0,0.0,97,0.00,,,0.70,Wunderground v.1.15,2013-02-26 22:41:00,
2013-02-26 17:43:00,58.3,57.5,29.51,SW,223,0.0,1.0,97,0.00,,,0.70,Wunderground v.1.15,2013-02-26 22:43:00,
2013-02-26 17:45:00,58.4,57.6,29.52,SW,222,1.0,1.0,97,0.00,,,0.70,Wunderground v.1.15,2013-02-26 22:45:00,
2013-02-26 17:46:00,58.4,57.6,29.52,NW,304,0.0,1.0,97,0.00,,,0.70,Wunderground v.1.15,2013-02-26 22:46:00,
2013-02-26 17:48:00,58.2,57.4,29.52,North,8,3.0,3.0,97,0.00,,,0.70,Wunderground v.1.15,2013-02-26 22:48:00,
2013-02-26 17:50:00,58.1,57.3,29.52,NE,34,1.0,3.0,97,0.00,,,0.70,Wunderground v.1.15,2013-02-26 22:50:00,
2013-02-26 17:51:00,58.1,57.3,29.52,NE,34,1.0,2.0,97,0.00,,,0.70,Wunderground v.1.15,2013-02-26 22:51:00,
2013-02-26 17:54:00,58.0,57.2,29.53,SW,232,1.0,3.0,97,0.00,,,0.70,Wunderground v.1.15,2013-02-26 22:54:00,
2013-02-26 17:55:00,58.0,57.2,29.53,WNW,302,0.0,3.0,97,0.00,,,0.70,Wunderground v.1.15,2013-02-26 22:55:00,
2013-02-26 17:56:00,57.9,57.1,29.53,North,349,1.0,3.0,97,0.00,,,0.70,Wunderground v.1.15,2013-02-26 22:56:00,
2013-02-26 17:59:00,57.8,57.0,29.52,ENE,75,2.0,3.0,97,0.00,,,0.70,Wunderground v.1.15,2013-02-26 22:59:00,
2013-02-26 18:00:00,57.8,57.0,29.52,ENE,72,2.0,2.0,97,0.00,,,0.70,Wunderground v.1.15,2013-02-26 23:00:00,
2013-02-26 18:01:00,57.8,57.0,29.52,ESE,105,0.0,2.0,97,0.00,,,0.70,Wunderground v.1.15,2013-02-26 23:01:00,
2013-02-26 18:04:00,57.8,57.0,29.52,ESE,105,0.0,2.0,97,0.00,,,0.70,Wunderground v.1.15,2013-02-26 23:04:00,
2013-02-26 18:05:00,57.8,57.0,29.52,South,174,0.0,2.0,97,0.00,,,0.70,Wunderground v.1.15,2013-02-26 23:05:00,
2013-02-26 18:06:00,57.8,57.0,29.52,South,176,0.0,2.0,97,0.00,,,0.70,Wunderground v.1.15,2013-02-26 23:06:00,
2013-02-26 18:09:00,57.7,56.9,29.52,South,176,0.0,2.0,97,0.00,,,0.70,Wunderground v.1.15,2013-02-26 23:09:00,
2013-02-26 18:10:00,57.7,56.9,29.52,South,176,0.0,0.0,97,0.00,,,0.70,Wunderground v.1.15,2013-02-26 23:10:00,
2013-02-26 18:11:00,57.6,56.8,29.52,South,176,0.0,0.0,97,0.00,,,0.70,Wunderground v.1.15,2013-02-26 23:11:00,
2013-02-26 18:12:00,57.6,56.8,29.52,South,176,0.0,0.0,97,0.00,,,0.70,Wunderground v.1.15,2013-02-26 23:12:00,
2013-02-26 18:14:00,57.6,56.8,29.52,South,176,0.0,0.0,97,0.00,,,0.70,Wunderground v.1.15,2013-02-26 23:14:00,
2013-02-26 18:15:00,57.6,56.8,29.52,South,176,0.0,1.0,97,0.00,,,0.70,Wunderground v.1.15,2013-02-26 23:15:00,
2013-02-26 18:16:00,57.6,56.8,29.52,South,176,0.0,1.0,97,0.00,,,0.70,Wunderground v.1.15,2013-02-26 23:16:00,
2013-02-26 18:17:00,57.5,56.7,29.53,WSW,253,4.0,4.0,97,0.00,,,0.70,Wunderground v.1.15,2013-02-26 23:17:00,
2013-02-26 18:19:00,57.4,56.6,29.53,ENE,68,3.0,4.0,97,0.00,,,0.70,Wunderground v.1.15,2013-02-26 23:19:00,
2013-02-26 18:20:00,57.4,56.6,29.52,NE,48,4.0,4.0,97,0.00,,,0.70,Wunderground v.1.15,2013-02-26 23:20:00,
2013-02-26 18:21:00,57.4,56.6,29.52,ENE,60,2.0,4.0,97,0.00,,,0.70,Wunderground v.1.15,2013-02-26 23:21:00,
2013-02-26 18:22:00,57.4,56.6,29.52,ENE,61,0.0,4.0,97,0.00,,,0.70,Wunderground v.1.15,2013-02-26 23:22:00,
2013-02-26 18:25:00,57.4,56.6,29.52,SW,226,1.0,4.0,97,0.00,,,0.70,Wunderground v.1.15,2013-02-26 23:25:00,
2013-02-26 18:26:00,57.6,56.8,29.52,ESE,122,0.0,4.0,97,0.00,,,0.70,Wunderground v.1.15,2013-02-26 23:26:00,
2013-02-26 18:27:00,57.6,56.8,29.52,SE,129,1.0,4.0,97,0.00,,,0.70,Wunderground v.1.15,2013-02-26 23:27:00,
2013-02-26 18:30:00,57.7,56.9,29.52,SSW,195,1.0,1.0,97,0.00,,,0.70,Wunderground v.1.15,2013-02-26 23:30:00,
2013-02-26 18:31:00,57.6,56.8,29.52,SSW,195,0.0,1.0,97,0.00,,,0.70,Wunderground v.1.15,2013-02-26 23:31:00,
2013-02-26 18:32:00,57.6,56.8,29.52,SSW,195,0.0,1.0,97,0.00,,,0.70,Wunderground v.1.15,2013-02-26 23:32:00,
2013-02-26 18:35:00,57.6,56.8,29.53,SSW,195,0.0,1.0,97,0.00,,,0.70,Wunderground v.1.15,2013-02-26 23:35:00,
2013-02-26 18:36:00,57.7,56.9,29.53,SSW,195,0.0,1.0,97,0.00,,,0.70,Wunderground v.1.15,2013-02-26 23:36:00,
2013-02-26 18:37:00,57.6,56.8,29.53,SSW,195,0.0,1.0,97,0.00,,,0.70,Wunderground v.1.15,2013-02-26 23:37:00,
2013-02-26 18:40:00,57.7,56.9,29.53,SSW,195,0.0,0.0,97,0.00,,,0.70,Wunderground v.1.15,2013-02-26 23:40:00,
2013-02-26 18:41:00,57.7,56.9,29.53,SSW,195,0.0,0.0,97,0.00,,,0.70,Wunderground v.1.15,2013-02-26 23:41:00,
2013-02-26 18:42:00,57.7,56.9,29.53,SSW,195,0.0,0.0,97,0.00,,,0.70,Wunderground v.1.15,2013-02-26 23:42:00,
2013-02-26 18:45:00,57.7,56.9,29.53,SSW,195,0.0,0.0,97,0.00,,,0.70,Wunderground v.1.15,2013-02-26 23:45:00,
2013-02-26 18:46:00,57.7,56.9,29.53,SSW,195,0.0,0.0,97,0.00,,,0.70,Wunderground v.1.15,2013-02-26 23:46:00,
2013-02-26 18:47:00,57.7,56.9,29.53,SSW,195,0.0,0.0,97,0.00,,,0.70,Wunderground v.1.15,2013-02-26 23:47:00,
2013-02-26 18:50:00,57.6,56.8,29.53,SSW,195,0.0,0.0,97,0.00,,,0.70,Wunderground v.1.15,2013-02-26 23:50:00,
2013-02-26 18:51:00,57.7,56.9,29.53,SSW,195,0.0,0.0,97,0.00,,,0.70,Wunderground v.1.15,2013-02-26 23:51:00,
2013-02-26 18:52:00,57.7,56.9,29.53,SSW,195,0.0,0.0,97,0.00,,,0.70,Wunderground v.1.15,2013-02-26 23:52:00,
2013-02-26 18:53:00,57.7,56.9,29.53,SSW,195,0.0,0.0,97,0.00,,,0.70,Wunderground v.1.15,2013-02-26 23:53:00,
2013-02-26 18:55:00,57.6,56.8,29.53,SSW,195,0.0,0.0,97,0.00,,,0.70,Wunderground v.1.15,2013-02-26 23:55:00,
2013-02-26 18:56:00,57.6,56.8,29.53,SSW,195,0.0,0.0,97,0.00,,,0.70,Wunderground v.1.15,2013-02-26 23:56:00,
2013-02-26 18:57:00,57.6,56.8,29.53,SSW,195,0.0,0.0,97,0.00,,,0.70,Wunderground v.1.15,2013-02-26 23:57:00,
2013-02-26 18:58:00,57.5,56.7,29.53,SSW,195,0.0,0.0,97,0.00,,,0.70,Wunderground v.1.15,2013-02-26 23:58:00,
2013-02-26 19:00:00,57.5,56.7,29.53,SSW,195,0.0,0.0,97,0.00,,,0.70,Wunderground v.1.15,2013-02-27 00:00:00,
2013-02-26 19:01:00,57.5,56.7,29.53,SSW,195,0.0,0.0,97,0.00,,,0.70,Wunderground v.1.15,2013-02-27 00:01:00,
2013-02-26 19:02:00,57.4,56.6,29.53,SSW,195,0.0,0.0,97,0.00,,,0.70,Wunderground v.1.15,2013-02-27 00:02:00,
2013-02-26 19:04:00,57.4,56.6,29.53,SSW,195,0.0,0.0,97,0.00,,,0.70,Wunderground v.1.15,2013-02-27 00:04:00,
2013-02-26 19:06:00,57.5,56.7,29.53,SSW,195,0.0,0.0,97,0.00,,,0.70,Wunderground v.1.15,2013-02-27 00:06:00,
2013-02-26 19:07:00,57.5,56.7,29.54,SSW,195,0.0,0.0,97,0.00,,,0.70,Wunderground v.1.15,2013-02-27 00:07:00,
2013-02-26 19:09:00,57.4,56.6,29.54,SSW,195,0.0,0.0,97,0.00,,,0.70,Wunderground v.1.15,2013-02-27 00:09:00,
2013-02-26 19:11:00,57.4,56.6,29.54,SSW,195,0.0,0.0,97,0.00,,,0.70,Wunderground v.1.15,2013-02-27 00:11:00,
2013-02-26 19:12:00,57.3,56.5,29.54,SSW,195,0.0,0.0,97,0.00,,,0.70,Wunderground v.1.15,2013-02-27 00:12:00,
2013-02-26 19:14:00,57.2,56.4,29.54,SSW,195,0.0,0.0,97,0.00,,,0.70,Wunderground v.1.15,2013-02-27 00:14:00,
2013-02-26 19:16:00,57.1,56.3,29.54,SSW,195,0.0,0.0,97,0.00,,,0.70,Wunderground v.1.15,2013-02-27 00:16:00,
2013-02-26 19:17:00,57.0,56.2,29.54,SSW,195,0.0,0.0,97,0.00,,,0.70,Wunderground v.1.15,2013-02-27 00:17:00,
2013-02-26 19:19:00,56.9,56.1,29.54,SSW,195,0.0,0.0,97,0.00,,,0.70,Wunderground v.1.15,2013-02-27 00:19:00,
2013-02-26 19:21:00,56.7,55.9,29.54,SSW,195,0.0,0.0,97,0.00,,,0.70,Wunderground v.1.15,2013-02-27 00:21:00,
2013-02-26 19:22:00,56.7,55.9,29.54,SSW,195,0.0,0.0,97,0.00,,,0.70,Wunderground v.1.15,2013-02-27 00:22:00,
2013-02-26 19:24:00,56.6,55.8,29.54,SSW,195,0.0,0.0,97,0.00,,,0.70,Wunderground v.1.15,2013-02-27 00:24:00,
2013-02-26 19:26:00,56.5,55.7,29.54,SSW,195,0.0,0.0,97,0.00,,,0.70,Wunderground v.1.15,2013-02-27 00:26:00,
2013-02-26 19:27:00,56.5,55.7,29.54,SSW,195,0.0,0.0,97,0.00,,,0.70,Wunderground v.1.15,2013-02-27 00:27:00,
2013-02-26 19:29:00,56.3,55.5,29.53,SSW,195,0.0,0.0,97,0.00,,,0.70,Wunderground v.1.15,2013-02-27 00:29:00,
2013-02-26 19:32:00,56.3,55.5,29.53,SSW,195,0.0,0.0,97,0.00,,,0.70,Wunderground v.1.15,2013-02-27 00:32:00,
2013-02-26 19:34:00,56.3,55.5,29.54,SSW,195,0.0,0.0,97,0.00,,,0.70,Wunderground v.1.15,2013-02-27 00:34:00,
2013-02-26 19:37:00,56.4,55.6,29.54,SSW,195,0.0,0.0,97,0.00,,,0.70,Wunderground v.1.15,2013-02-27 00:37:00,
2013-02-26 19:38:00,56.4,55.6,29.54,SSW,195,0.0,0.0,97,0.00,,,0.70,Wunderground v.1.15,2013-02-27 00:38:00,
2013-02-26 19:39:00,56.3,55.5,29.54,SSW,195,0.0,0.0,97,0.00,,,0.70,Wunderground v.1.15,2013-02-27 00:39:00,
2013-02-26 19:42:00,56.3,55.5,29.55,SSW,195,0.0,0.0,97,0.00,,,0.70,Wunderground v.1.15,2013-02-27 00:42:00,
2013-02-26 19:43:00,56.3,55.5,29.54,SSW,195,0.0,0.0,97,0.00,,,0.70,Wunderground v.1.15,2013-02-27 00:43:00,
2013-02-26 19:45:00,56.2,55.4,29.55,SSW,195,0.0,0.0,97,0.00,,,0.70,Wunderground v.1.15,2013-02-27 00:45:00,
2013-02-26 19:47:00,56.1,55.3,29.55,SSW,195,0.0,0.0,97,0.00,,,0.70,Wunderground v.1.15,2013-02-27 00:47:00,
2013-02-26 19:48:00,56.1,55.3,29.55,SSW,195,0.0,0.0,97,0.00,,,0.70,Wunderground v.1.15,2013-02-27 00:48:00,
2013-02-26 19:50:00,56.0,55.2,29.55,SSW,195,0.0,0.0,97,0.00,,,0.70,Wunderground v.1.15,2013-02-27 00:50:00,
2013-02-26 19:53:00,56.0,55.2,29.55,SSW,195,0.0,0.0,97,0.00,,,0.70,Wunderground v.1.15,2013-02-27 00:53:00,
2013-02-26 19:54:00,55.9,55.1,29.55,SSW,195,0.0,0.0,97,0.00,,,0.70,Wunderground v.1.15,2013-02-27 00:54:00,
2013-02-26 19:55:00,55.9,55.1,29.55,SSW,195,0.0,0.0,97,0.00,,,0.70,Wunderground v.1.15,2013-02-27 00:55:00,
2013-02-26 19:58:00,55.8,55.0,29.55,SSW,195,0.0,0.0,97,0.00,,,0.70,Wunderground v.1.15,2013-02-27 00:58:00,
2013-02-26 19:59:00,55.8,55.0,29.55,SSW,195,0.0,0.0,97,0.00,,,0.70,Wunderground v.1.15,2013-02-27 00:59:00,
2013-02-26 20:00:00,55.7,54.9,29.55,SSW,195,0.0,0.0,97,0.00,,,0.70,Wunderground v.1.15,2013-02-27 01:00:00,
2013-02-26 20:03:00,55.6,54.8,29.55,SSW,195,0.0,0.0,97,0.00,,,0.70,Wunderground v.1.15,2013-02-27 01:03:00,
2013-02-26 20:04:00,55.5,54.7,29.56,SSW,195,0.0,0.0,97,0.00,,,0.70,Wunderground v.1.15,2013-02-27 01:04:00,
2013-02-26 20:05:00,55.5,54.7,29.56,SSW,195,0.0,0.0,97,0.00,,,0.70,Wunderground v.1.15,2013-02-27 01:05:00,
2013-02-26 20:08:00,55.4,54.6,29.56,SSW,195,0.0,0.0,97,0.00,,,0.70,Wunderground v.1.15,2013-02-27 01:08:00,
2013-02-26 20:09:00,55.3,54.5,29.55,SSW,195,0.0,0.0,97,0.00,,,0.70,Wunderground v.1.15,2013-02-27 01:09:00,
2013-02-26 20:10:00,55.4,54.6,29.55,SSW,195,0.0,0.0,97,0.00,,,0.70,Wunderground v.1.15,2013-02-27 01:10:00,
2013-02-26 20:13:00,55.3,54.5,29.56,SSW,195,0.0,0.0,97,0.00,,,0.70,Wunderground v.1.15,2013-02-27 01:13:00,
2013-02-26 20:14:00,55.3,54.5,29.56,SSW,195,0.0,0.0,97,0.00,,,0.70,Wunderground v.1.15,2013-02-27 01:14:00,
2013-02-26 20:15:00,55.3,54.5,29.56,SSW,195,0.0,0.0,97,0.00,,,0.70,Wunderground v.1.15,2013-02-27 01:15:00,
2013-02-26 20:18:00,54.9,54.1,29.56,SSW,195,0.0,0.0,97,0.00,,,0.70,Wunderground v.1.15,2013-02-27 01:18:00,
2013-02-26 20:19:00,54.9,54.1,29.56,SSW,195,0.0,0.0,97,0.00,,,0.70,Wunderground v.1.15,2013-02-27 01:19:00,
2013-02-26 20:21:00,54.6,53.8,29.56,SSW,195,0.0,0.0,97,0.00,,,0.70,Wunderground v.1.15,2013-02-27 01:21:00,
2013-02-26 20:23:00,54.5,53.7,29.56,SSW,195,0.0,0.0,97,0.00,,,0.70,Wunderground v.1.15,2013-02-27 01:23:00,
2013-02-26 20:24:00,54.4,53.6,29.56,SSW,195,0.0,0.0,97,0.00,,,0.70,Wunderground v.1.15,2013-02-27 01:24:00,
2013-02-26 20:26:00,54.3,53.5,29.57,SSW,195,0.0,0.0,97,0.00,,,0.70,Wunderground v.1.15,2013-02-27 01:26:00,
2013-02-26 20:28:00,54.3,53.5,29.57,SSW,195,0.0,0.0,97,0.00,,,0.70,Wunderground v.1.15,2013-02-27 01:28:00,
2013-02-26 20:29:00,54.2,53.4,29.57,SSW,195,0.0,0.0,97,0.00,,,0.70,Wunderground v.1.15,2013-02-27 01:29:00,
2013-02-26 20:31:00,54.2,53.4,29.57,SSW,195,1.0,1.0,97,0.00,,,0.70,Wunderground v.1.15,2013-02-27 01:31:00,
2013-02-26 20:33:00,54.2,53.4,29.58,SSW,195,0.0,1.0,97,0.00,,,0.70,Wunderground v.1.15,2013-02-27 01:33:00,
2013-02-26 20:34:00,54.2,53.4,29.58,SSW,195,0.0,1.0,97,0.00,,,0.70,Wunderground v.1.15,2013-02-27 01:34:00,
2013-02-26 20:35:00,54.2,53.4,29.58,SSW,195,1.0,1.0,97,0.00,,,0.70,Wunderground v.1.15,2013-02-27 01:35:00,
2013-02-26 20:36:00,54.2,53.4,29.58,SSW,195,0.0,1.0,97,0.00,,,0.70,Wunderground v.1.15,2013-02-27 01:36:00,
2013-02-26 20:38:00,54.3,53.7,29.58,SSW,195,0.0,1.0,98,0.00,,,0.70,Wunderground v.1.15,2013-02-27 01:38:00,
2013-02-26 20:39:00,54.3,53.7,29.58,SSW,195,0.0,1.0,98,0.00,,,0.70,Wunderground v.1.15,2013-02-27 01:39:00,
2013-02-26 20:40:00,54.3,53.7,29.58,SSW,195,0.0,1.0,98,0.00,,,0.70,Wunderground v.1.15,2013-02-27 01:40:00,
2013-02-26 20:41:00,54.2,53.6,29.58,SSW,195,0.0,1.0,98,0.00,,,0.70,Wunderground v.1.15,2013-02-27 01:41:00,
2013-02-26 20:43:00,54.2,53.4,29.58,SSW,195,0.0,1.0,97,0.00,,,0.70,Wunderground v.1.15,2013-02-27 01:43:00,
2013-02-26 20:44:00,54.2,53.4,29.58,SSW,195,0.0,1.0,97,0.00,,,0.70,Wunderground v.1.15,2013-02-27 01:44:00,
2013-02-26 20:45:00,54.3,53.7,29.58,SSW,195,0.0,1.0,98,0.00,,,0.70,Wunderground v.1.15,2013-02-27 01:45:00,
2013-02-26 20:46:00,54.4,53.8,29.58,SSW,195,0.0,1.0,98,0.00,,,0.70,Wunderground v.1.15,2013-02-27 01:46:00,
2013-02-26 20:48:00,54.5,53.9,29.57,SSW,195,0.0,1.0,98,0.00,,,0.70,Wunderground v.1.15,2013-02-27 01:48:00,
2013-02-26 20:49:00,54.6,54.0,29.58,SSW,195,0.0,1.0,98,0.00,,,0.70,Wunderground v.1.15,2013-02-27 01:49:00,
2013-02-26 20:50:00,54.6,54.0,29.58,SSW,195,0.0,0.0,98,0.00,,,0.70,Wunderground v.1.15,2013-02-27 01:50:00,
2013-02-26 20:52:00,54.7,54.1,29.58,SSW,195,0.0,0.0,98,0.00,,,0.70,Wunderground v.1.15,2013-02-27 01:52:00,
2013-02-26 20:53:00,54.7,54.1,29.58,SSW,195,0.0,0.0,98,0.00,,,0.70,Wunderground v.1.15,2013-02-27 01:53:00,
2013-02-26 20:54:00,54.8,54.2,29.58,SSW,195,0.0,0.0,98,0.00,,,0.70,Wunderground v.1.15,2013-02-27 01:54:00,
2013-02-26 20:55:00,54.9,54.3,29.58,SSW,195,0.0,0.0,98,0.00,,,0.70,Wunderground v.1.15,2013-02-27 01:55:00,
2013-02-26 20:58:00,54.9,54.3,29.58,SSW,212,1.0,1.0,98,0.00,,,0.70,Wunderground v.1.15,2013-02-27 01:58:00,
2013-02-26 20:59:00,54.9,54.3,29.58,WSW,240,4.0,4.0,98,0.00,,,0.70,Wunderground v.1.15,2013-02-27 01:59:00,
2013-02-26 21:00:00,54.9,54.3,29.59,SW,224,0.0,1.0,98,0.00,,,0.70,Wunderground v.1.15,2013-02-27 02:00:00,
2013-02-26 21:03:00,54.9,54.3,29.58,SW,226,2.0,4.0,98,0.00,,,0.70,Wunderground v.1.15,2013-02-27 02:03:00,
2013-02-26 21:04:00,54.9,54.3,29.59,SW,231,1.0,4.0,98,0.00,,,0.70,Wunderground v.1.15,2013-02-27 02:04:00,
2013-02-26 21:06:00,54.9,54.3,29.59,SW,219,1.0,4.0,98,0.00,,,0.70,Wunderground v.1.15,2013-02-27 02:06:00,
2013-02-26 21:08:00,54.7,54.1,29.59,WSW,253,0.0,4.0,98,0.00,,,0.70,Wunderground v.1.15,2013-02-27 02:08:00,
2013-02-26 21:09:00,54.5,53.7,29.59,WSW,240,5.0,12.0,97,0.00,,,0.70,Wunderground v.1.15,2013-02-27 02:09:00,
2013-02-26 21:11:00,54.4,53.6,29.59,WSW,255,3.0,3.0,97,0.00,,,0.70,Wunderground v.1.15,2013-02-27 02:11:00,
2013-02-26 21:13:00,54.3,53.2,29.59,SW,231,2.0,3.0,96,0.00,,,0.70,Wunderground v.1.15,2013-02-27 02:13:00,
2013-02-26 21:14:00,54.3,53.2,29.60,SSW,203,0.0,3.0,96,0.00,,,0.70,Wunderground v.1.15,2013-02-27 02:14:00,
2013-02-26 21:15:00,54.2,53.1,29.60,WSW,254,2.0,3.0,96,0.00,,,0.70,Wunderground v.1.15,2013-02-27 02:15:00,
2013-02-26 21:16:00,54.1,53.0,29.60,SSW,197,3.0,3.0,96,0.00,,,0.70,Wunderground v.1.15,2013-02-27 02:16:00,
2013-02-26 21:19:00,54.1,52.7,29.60,SW,222,1.0,3.0,95,0.00,,,0.70,Wunderground v.1.15,2013-02-27 02:19:00,
2013-02-26 21:20:00,54.0,52.6,29.60,SSW,195,1.0,2.0,95,0.00,,,0.70,Wunderground v.1.15,2013-02-27 02:20:00,
2013-02-26 21:22:00,54.0,52.3,29.60,SW,219,1.0,2.0,94,0.00,,,0.70,Wunderground v.1.15,2013-02-27 02:22:00,
2013-02-26 21:24:00,53.8,51.5,29.61,SSW,207,1.0,6.0,92,0.00,,,0.70,Wunderground v.1.15,2013-02-27 02:24:00,
2013-02-26 21:25:00,53.8,51.2,29.61,SSW,195,1.0,9.0,91,0.00,,,0.70,Wunderground v.1.15,2013-02-27 02:25:00,
2013-02-26 21:27:00,53.7,51.1,29.61,South,181,1.0,9.0,91,0.00,,,0.70,Wunderground v.1.15,2013-02-27 02:27:00,
2013-02-26 21:29:00,53.7,51.1,29.61,WSW,245,1.0,9.0,91,0.00,,,0.70,Wunderground v.1.15,2013-02-27 02:29:00,
2013-02-26 21:30:00,53.6,51.0,29.61,WSW,238,1.0,2.0,91,0.00,,,0.70,Wunderground v.1.15,2013-02-27 02:30:00,
2013-02-26 21:32:00,53.6,51.0,29.61,SSW,207,0.0,2.0,91,0.00,,,0.70,Wunderground v.1.15,2013-02-27 02:32:00,
2013-02-26 21:34:00,53.5,50.9,29.60,SSW,203,0.0,2.0,91,0.00,,,0.70,Wunderground v.1.15,2013-02-27 02:34:00,
2013-02-26 21:35:00,53.4,50.8,29.61,SW,232,0.0,2.0,91,0.00,,,0.70,Wunderground v.1.15,2013-02-27 02:35:00,
2013-02-26 21:37:00,53.3,50.7,29.61,SW,231,0.0,2.0,91,0.00,,,0.70,Wunderground v.1.15,2013-02-27 02:37:00,
2013-02-26 21:39:00,53.1,50.5,29.61,SW,231,0.0,2.0,91,0.00,,,0.70,Wunderground v.1.15,2013-02-27 02:39:00,
2013-02-26 21:40:00,53.1,50.5,29.61,SW,231,0.0,0.0,91,0.00,,,0.70,Wunderground v.1.15,2013-02-27 02:40:00,
2013-02-26 21:41:00,53.0,50.4,29.61,SW,231,0.0,0.0,91,0.00,,,0.70,Wunderground v.1.15,2013-02-27 02:41:00,
2013-02-26 21:42:00,52.9,50.3,29.61,SW,230,0.0,1.0,91,0.00,,,0.70,Wunderground v.1.15,2013-02-27 02:42:00,
2013-02-26 21:45:00,52.8,50.2,29.61,SW,231,0.0,1.0,91,0.00,,,0.70,Wunderground v.1.15,2013-02-27 02:45:00,
2013-02-26 21:46:00,52.6,50.3,29.61,SW,231,1.0,1.0,92,0.00,,,0.70,Wunderground v.1.15,2013-02-27 02:46:00,
2013-02-26 21:47:00,52.6,50.3,29.61,WSW,252,0.0,2.0,92,0.00,,,0.70,Wunderground v.1.15,2013-02-27 02:47:00,
2013-02-26 21:50:00,52.4,50.1,29.61,SW,218,0.0,0.0,92,0.00,,,0.70,Wunderground v.1.15,2013-02-27 02:50:00,
2013-02-26 21:51:00,52.2,49.9,29.61,ESE,117,0.0,1.0,92,0.00,,,0.70,Wunderground v.1.15,2013-02-27 02:51:00,
2013-02-26 21:53:00,52.1,49.8,29.61,WSW,238,0.0,1.0,92,0.00,,,0.70,Wunderground v.1.15,2013-02-27 02:53:00,
2013-02-26 21:55:00,51.9,49.6,29.61,NW,307,1.0,3.0,92,0.00,,,0.70,Wunderground v.1.15,2013-02-27 02:55:00,
2013-02-26 21:57:00,51.8,49.5,29.61,SSW,195,0.0,3.0,92,0.00,,,0.70,Wunderground v.1.15,2013-02-27 02:57:00,
2013-02-26 21:58:00,51.6,49.4,29.61,SSW,193,0.0,3.0,92,0.00,,,0.70,Wunderground v.1.15,2013-02-27 02:58:00,
2013-02-26 22:01:00,51.5,49.3,29.61,SSW,193,0.0,0.0,92,0.00,,,0.70,Wunderground v.1.15,2013-02-27 03:01:00,
2013-02-26 22:02:00,51.4,49.2,29.61,SSW,193,0.0,0.0,92,0.00,,,0.70,Wunderground v.1.15,2013-02-27 03:02:00,
2013-02-26 22:03:00,51.4,49.2,29.61,SSW,193,0.0,0.0,92,0.00,,,0.70,Wunderground v.1.15,2013-02-27 03:03:00,
2013-02-26 22:06:00,51.2,49.0,29.61,SSW,193,0.0,0.0,92,0.00,,,0.70,Wunderground v.1.15,2013-02-27 03:06:00,
2013-02-26 22:07:00,51.2,49.0,29.61,SSW,193,0.0,0.0,92,0.00,,,0.70,Wunderground v.1.15,2013-02-27 03:07:00,
2013-02-26 22:08:00,51.1,48.9,29.60,SSW,193,0.0,0.0,92,0.00,,,0.70,Wunderground v.1.15,2013-02-27 03:08:00,
2013-02-26 22:11:00,50.9,48.7,29.61,SSW,198,0.0,1.0,92,0.00,,,0.70,Wunderground v.1.15,2013-02-27 03:11:00,
2013-02-26 22:12:00,50.9,48.7,29.60,SSW,198,0.0,1.0,92,0.00,,,0.70,Wunderground v.1.15,2013-02-27 03:12:00,
2013-02-26 22:13:00,50.8,48.6,29.60,SSW,198,0.0,1.0,92,0.00,,,0.70,Wunderground v.1.15,2013-02-27 03:13:00,
2013-02-26 22:16:00,50.7,48.5,29.61,SSW,198,0.0,1.0,92,0.00,,,0.70,Wunderground v.1.15,2013-02-27 03:16:00,
2013-02-26 22:17:00,50.6,48.4,29.61,SSW,198,0.0,1.0,92,0.00,,,0.70,Wunderground v.1.15,2013-02-27 03:17:00,
2013-02-26 22:18:00,50.5,48.6,29.61,SSW,198,0.0,1.0,93,0.00,,,0.70,Wunderground v.1.15,2013-02-27 03:18:00,
2013-02-26 22:21:00,50.4,48.5,29.61,SSW,198,0.0,0.0,93,0.00,,,0.70,Wunderground v.1.15,2013-02-27 03:21:00,
2013-02-26 22:23:00,50.3,48.4,29.61,SSW,198,0.0,0.0,93,0.00,,,0.70,Wunderground v.1.15,2013-02-27 03:23:00,
2013-02-26 22:24:00,50.2,48.3,29.61,SSW,198,0.0,0.0,93,0.00,,,0.70,Wunderground v.1.15,2013-02-27 03:24:00,
2013-02-26 22:26:00,50.1,48.2,29.61,SSW,198,0.0,0.0,93,0.00,,,0.70,Wunderground v.1.15,2013-02-27 03:26:00,
2013-02-26 22:28:00,50.0,48.1,29.61,SSW,198,0.0,0.0,93,0.00,,,0.70,Wunderground v.1.15,2013-02-27 03:28:00,
2013-02-26 22:29:00,50.0,48.1,29.61,SSW,198,0.0,0.0,93,0.00,,,0.70,Wunderground v.1.15,2013-02-27 03:29:00,
2013-02-26 22:31:00,49.8,47.9,29.61,SW,224,0.0,1.0,93,0.00,,,0.70,Wunderground v.1.15,2013-02-27 03:31:00,
2013-02-26 22:32:00,49.7,47.8,29.61,SW,224,0.0,1.0,93,0.00,,,0.70,Wunderground v.1.15,2013-02-27 03:32:00,
2013-02-26 22:33:00,49.7,47.8,29.61,SW,224,0.0,1.0,93,0.00,,,0.70,Wunderground v.1.15,2013-02-27 03:33:00,
2013-02-26 22:34:00,49.6,47.7,29.61,SW,224,0.0,1.0,93,0.00,,,0.70,Wunderground v.1.15,2013-02-27 03:34:00,
2013-02-26 22:36:00,49.5,47.6,29.61,SW,224,0.0,1.0,93,0.00,,,0.70,Wunderground v.1.15,2013-02-27 03:36:00,
2013-02-26 22:37:00,49.5,47.6,29.61,SW,224,0.0,1.0,93,0.00,,,0.70,Wunderground v.1.15,2013-02-27 03:37:00,
2013-02-26 22:38:00,49.4,47.5,29.61,SW,224,0.0,1.0,93,0.00,,,0.70,Wunderground v.1.15,2013-02-27 03:38:00,
2013-02-26 22:40:00,49.3,47.4,29.61,SW,224,0.0,1.0,93,0.00,,,0.70,Wunderground v.1.15,2013-02-27 03:40:00,
2013-02-26 22:41:00,49.3,47.4,29.61,SW,224,0.0,1.0,93,0.00,,,0.70,Wunderground v.1.15,2013-02-27 03:41:00,
2013-02-26 22:42:00,49.3,47.4,29.61,SW,224,0.0,1.0,93,0.00,,,0.70,Wunderground v.1.15,2013-02-27 03:42:00,
2013-02-26 22:43:00,49.3,47.4,29.61,SW,228,1.0,1.0,93,0.00,,,0.70,Wunderground v.1.15,2013-02-27 03:43:00,
2013-02-26 22:45:00,49.2,47.3,29.61,SW,218,0.0,1.0,93,0.00,,,0.70,Wunderground v.1.15,2013-02-27 03:45:00,
2013-02-26 22:46:00,49.2,47.3,29.61,SW,218,0.0,1.0,93,0.00,,,0.70,Wunderground v.1.15,2013-02-27 03:46:00,
2013-02-26 22:47:00,49.1,47.2,29.60,SW,218,0.0,1.0,93,0.00,,,0.70,Wunderground v.1.15,2013-02-27 03:47:00,
2013-02-26 22:48:00,49.1,47.2,29.60,SW,218,0.0,1.0,93,0.00,,,0.70,Wunderground v.1.15,2013-02-27 03:48:00,
2013-02-26 22:50:00,49.0,47.1,29.60,SW,218,0.0,1.0,93,0.00,,,0.70,Wunderground v.1.15,2013-02-27 03:50:00,
2013-02-26 22:51:00,48.9,47.0,29.60,SW,218,0.0,0.0,93,0.00,,,0.70,Wunderground v.1.15,2013-02-27 03:51:00,
2013-02-26 22:52:00,48.9,47.0,29.60,SW,218,0.0,0.0,93,0.00,,,0.70,Wunderground v.1.15,2013-02-27 03:52:00,
2013-02-26 22:53:00,48.9,47.0,29.60,SW,218,0.0,0.0,93,0.00,,,0.70,Wunderground v.1.15,2013-02-27 03:53:00,
2013-02-26 22:55:00,48.8,46.9,29.60,SW,218,0.0,0.0,93,0.00,,,0.70,Wunderground v.1.15,2013-02-27 03:55:00,
2013-02-26 22:56:00,48.7,46.8,29.60,SW,218,0.0,0.0,93,0.00,,,0.70,Wunderground v.1.15,2013-02-27 03:56:00,
2013-02-26 22:57:00,48.7,46.8,29.60,SW,218,0.0,0.0,93,0.00,,,0.70,Wunderground v.1.15,2013-02-27 03:57:00,
2013-02-26 22:58:00,48.6,46.7,29.60,SW,218,0.0,0.0,93,0.00,,,0.70,Wunderground v.1.15,2013-02-27 03:58:00,
2013-02-26 23:00:00,48.5,46.6,29.60,SW,218,0.0,0.0,93,0.00,,,0.70,Wunderground v.1.15,2013-02-27 04:00:00,
2013-02-26 23:02:00,48.3,46.4,29.59,SW,218,0.0,0.0,93,0.00,,,0.70,Wunderground v.1.15,2013-02-27 04:02:00,
2013-02-26 23:03:00,48.2,46.3,29.59,SW,218,0.0,0.0,93,0.00,,,0.70,Wunderground v.1.15,2013-02-27 04:03:00,
2013-02-26 23:05:00,48.1,46.2,29.59,SW,218,0.0,0.0,93,0.00,,,0.70,Wunderground v.1.15,2013-02-27 04:05:00,
2013-02-26 23:07:00,48.1,46.2,29.59,SW,218,0.0,0.0,93,0.00,,,0.70,Wunderground v.1.15,2013-02-27 04:07:00,
2013-02-26 23:08:00,48.0,46.4,29.59,SW,218,0.0,0.0,94,0.00,,,0.70,Wunderground v.1.15,2013-02-27 04:08:00,
2013-02-26 23:11:00,47.9,46.3,29.59,SW,218,0.0,0.0,94,0.00,,,0.70,Wunderground v.1.15,2013-02-27 04:11:00,
2013-02-26 23:12:00,47.9,46.3,29.59,SW,218,0.0,0.0,94,0.00,,,0.70,Wunderground v.1.15,2013-02-27 04:12:00,
2013-02-26 23:14:00,47.9,46.5,29.59,SW,218,0.0,0.0,95,0.00,,,0.70,Wunderground v.1.15,2013-02-27 04:14:00,
2013-02-26 23:16:00,47.9,46.5,29.59,SW,218,0.0,0.0,95,0.00,,,0.70,Wunderground v.1.15,2013-02-27 04:16:00,
2013-02-26 23:17:00,47.9,46.5,29.59,SW,218,0.0,0.0,95,0.00,,,0.70,Wunderground v.1.15,2013-02-27 04:17:00,
2013-02-26 23:19:00,47.8,46.4,29.59,SW,218,0.0,1.0,95,0.00,,,0.70,Wunderground v.1.15,2013-02-27 04:19:00,
2013-02-26 23:21:00,47.8,46.4,29.59,SW,218,0.0,1.0,95,0.00,,,0.70,Wunderground v.1.15,2013-02-27 04:21:00,
2013-02-26 23:22:00,47.7,46.3,29.59,SW,218,0.0,1.0,95,0.00,,,0.70,Wunderground v.1.15,2013-02-27 04:22:00,
2013-02-26 23:24:00,47.7,46.3,29.59,SW,218,0.0,1.0,95,0.00,,,0.70,Wunderground v.1.15,2013-02-27 04:24:00,
2013-02-26 23:26:00,47.7,46.3,29.59,SW,218,0.0,1.0,95,0.00,,,0.70,Wunderground v.1.15,2013-02-27 04:26:00,
2013-02-26 23:27:00,47.6,46.2,29.59,SW,218,0.0,1.0,95,0.00,,,0.70,Wunderground v.1.15,2013-02-27 04:27:00,
2013-02-26 23:28:00,47.5,46.1,29.59,SW,218,0.0,1.0,95,0.00,,,0.70,Wunderground v.1.15,2013-02-27 04:28:00,
2013-02-26 23:29:00,47.4,46.0,29.59,SW,218,0.0,1.0,95,0.00,,,0.70,Wunderground v.1.15,2013-02-27 04:29:00,
2013-02-26 23:31:00,47.3,45.9,29.59,SW,218,0.0,0.0,95,0.00,,,0.70,Wunderground v.1.15,2013-02-27 04:31:00,
2013-02-26 23:32:00,47.3,45.9,29.59,SW,218,0.0,0.0,95,0.00,,,0.70,Wunderground v.1.15,2013-02-27 04:32:00,
2013-02-26 23:33:00,47.2,45.8,29.59,SW,218,0.0,0.0,95,0.00,,,0.70,Wunderground v.1.15,2013-02-27 04:33:00,
2013-02-26 23:34:00,47.1,45.7,29.59,SW,218,0.0,0.0,95,0.00,,,0.70,Wunderground v.1.15,2013-02-27 04:34:00,
2013-02-26 23:36:00,46.9,45.5,29.59,SW,218,0.0,0.0,95,0.00,,,0.70,Wunderground v.1.15,2013-02-27 04:36:00,
2013-02-26 23:37:00,46.8,45.4,29.59,SW,218,0.0,0.0,95,0.00,,,0.70,Wunderground v.1.15,2013-02-27 04:37:00,
2013-02-26 23:38:00,46.8,45.4,29.59,SW,218,0.0,0.0,95,0.00,,,0.70,Wunderground v.1.15,2013-02-27 04:38:00,
2013-02-26 23:40:00,46.7,45.3,29.59,SW,218,0.0,0.0,95,0.00,,,0.70,Wunderground v.1.15,2013-02-27 04:40:00,
2013-02-26 23:41:00,46.7,45.3,29.59,SW,218,0.0,0.0,95,0.00,,,0.70,Wunderground v.1.15,2013-02-27 04:41:00,
2013-02-26 23:42:00,46.7,45.6,29.59,SW,218,0.0,0.0,96,0.00,,,0.70,Wunderground v.1.15,2013-02-27 04:42:00,
2013-02-26 23:43:00,46.6,45.5,29.59,SW,218,0.0,0.0,96,0.00,,,0.70,Wunderground v.1.15,2013-02-27 04:43:00,
2013-02-26 23:45:00,46.6,45.5,29.58,SW,218,0.0,0.0,96,0.00,,,0.70,Wunderground v.1.15,2013-02-27 04:45:00,
2013-02-26 23:47:00,46.5,45.4,29.59,SW,218,0.0,0.0,96,0.00,,,0.70,Wunderground v.1.15,2013-02-27 04:47:00,
2013-02-26 23:48:00,46.5,45.4,29.58,SW,218,0.0,0.0,96,0.00,,,0.70,Wunderground v.1.15,2013-02-27 04:48:00,
2013-02-26 23:51:00,46.3,45.2,29.58,SW,218,0.0,0.0,96,0.00,,,0.70,Wunderground v.1.15,2013-02-27 04:51:00,
2013-02-26 23:52:00,46.2,45.1,29.58,SW,218,0.0,0.0,96,0.00,,,0.70,Wunderground v.1.15,2013-02-27 04:52:00,
2013-02-26 23:53:00,46.2,45.1,29.58,SW,219,0.0,0.0,96,0.00,,,0.70,Wunderground v.1.15,2013-02-27 04:53:00,
2013-02-26 23:56:00,46.1,45.0,29.58,SW,218,0.0,0.0,96,0.00,,,0.70,Wunderground v.1.15,2013-02-27 04:56:00,
2013-02-26 23:57:00,46.1,45.0,29.58,SW,218,0.0,0.0,96,0.00,,,0.70,Wunderground v.1.15,2013-02-27 04:57:00,
2013-02-26 23:58:00,46.0,44.9,29.59,SW,218,0.0,0.0,96,0.00,,,0.70,Wunderground v.1.15,2013-02-27 04:58:00,